GEFSSE_con_cape1000_000.txt.gz
Probability
100 100 100 100 100 100 100 100 100 100 100 100 100 100 100 100 100 100 100 100 100 100 100 100 100 100 100 100 100 100 100 100 100 100 100 100 100 100 100 100 100 100 100
100 100 100 100 100 100 100 100 100 100 100 100 100 100 100 100 100 100 100 100 100 100 100 100 100 100 100 100 100 100 100 100 100 100 100 100 100 100 100 100 100 100 100
100 100 100 100 100 100 100 100 100 100 100 100 100 100 100 100 100 100 100 100 100 100 100 100 100 100 100 100 100 100 100 100 100 100 100 100 100 100 100 100 100 100 100
100 100 100 100 100 100 100 100 100 100 100 100 100 100 100 100 100 100 100 100 100 100 100 100 100 100 100 100 100 100 100 100 100 100 81 90 100 100 100 100 100 100 100
100 100 100 100 100 100 100 100 100 100 100 100 100 100 100 100 100 100 100 100 100 100 100 100 100 100 100 100 100 100 94 52 35 71 6 23 61 100 100 100 100 100 100
100 100 100 100 100 100 100 100 100 100 100 100 100 100 100 100 100 100 100 100 100 100 100 100 100 100 100 97 94 77 55 10 10 6 87 65 94 100 100 100 100 100 100
100 100 100 100 100 100 100 100 100 100 100 100 100 100 100 100 100 100 100 100 100 100 100 100 100 90 84 61 65 55 13 10 45 77 87 90 94 100 100 87 81 97 100
100 100 100 100 100 100 100 100 100 100 100 100 100 100 100 100 100 100 100 100 100 100 100 97 74 52 35 29 6 0 0 0 13 87 55 32 77 94 74 26 16 10 6
97 100 100 100 100 100 100 100 100 100 100 100 100 100 100 100 100 100 100 100 100 100 94 45 0 3 23 6 0 0 0 0 0 3 13 23 19 6 3 19 10 0 0
0 23 97 100 100 100 100 100 100 100 100 100 100 100 100 100 100 100 100 100 100 100 100 61 23 3 3 3 3 0 0 0 0 0 0 0 0 0 0 0 0 0 0
0 0 13 100 100 100 100 100 100 100 100 100 100 100 100 100 100 100 100 100 100 100 100 48 6 0 0 0 0 0 0 0 0 0 0 0 0 0 0 0 0 0 0
0 0 0 100 100 100 100 100 100 100 100 97 97 94 97 94 100 100 100 100 100 100 87 42 13 3 0 0 0 0 0 0 0 0 0 0 0 0 3 26 29 3 0
0 0 0 94 100 100 100 100 100 100 100 87 84 42 23 61 52 87 84 94 81 68 52 23 0 0 0 0 0 0 0 0 0 0 0 32 81 94 90 100 100 84 42
0 0 0 13 94 100 100 100 100 97 94 23 19 32 23 48 23 29 32 19 13 10 0 0 0 0 0 0 0 0 0 0 0 0 0 65 100 100 97 97 100 100 100
0 0 0 0 68 97 100 97 87 77 58 16 55 81 74 87 84 74 58 0 0 0 0 0 0 0 0 0 0 0 0 0 0 0 3 81 100 100 94 87 94 94 100
0 0 0 0 45 77 87 87 81 77 42 13 19 6 3 35 74 29 0 0 0 0 0 0 0 0 0 0 0 0 0 0 0 0 0 0 13 39 65 55 35 39 74
0 0 0 0 55 35 26 52 65 58 16 0 0 0 0 0 0 0 0 0 0 0 0 0 0 0 0 0 0 0 0 0 0 0 0 0 0 0 3 3 6 13 26
0 0 0 3 48 19 0 0 0 0 0 0 0 0 0 0 0 0 0 0 0 0 0 0 0 0 0 0 0 0 0 0 0 0 0 0 0 0 0 0 3 3 3
0 0 0 0 13 0 0 0 0 0 0 0 0 0 0 0 0 0 0 0 0 0 0 0 0 0 0 0 0 0 0 0 0 0 0 0 0 0 0 0 0 0 3
0 0 0 0 0 0 0 0 0 0 0 0 0 0 0 0 0 0 0 0 0 0 0 0 0 0 0 0 0 0 0 0 0 0 0 0 0 0 0 0 0 0 0
0 0 0 0 0 0 0 0 0 0 0 0 0 0 0 0 0 0 0 0 0 0 0 0 0 0 0 0 0 0 0 0 0 0 0 0 0 0 0 0 0 0 0
0 0 0 0 0 0 0 0 0 0 0 0 0 0 0 0 0 0 0 0 0 0 0 0 0 0 0 0 0 0 0 0 0 0 0 0 0 0 0 0 0 0 0
0 0 0 0 0 0 0 0 0 0 0 0 0 0 0 0 0 0 0 0 0 0 0 0 0 0 0 0 0 0 0 0 0 0 0 0 0 0 0 0 0 0 0
0 0 0 0 0 0 0 0 0 0 0 0 0 0 0 0 0 0 0 0 0 0 0 0 0 0 0 0 0 0 0 0 0 0 0 0 0 0 0 0 0 0 0
0 0 0 0 0 0 0 0 0 0 0 0 0 0 0 0 0 0 0 0 0 0 0 0 0 0 0 0 0 0 0 0 0 0 0 0 0 0 0 0 0 0 0
0 0 0 0 0 0 0 0 0 0 0 0 0 0 0 0 0 0 0 0 0 0 0 0 0 0 0 0 0 0 0 0 0 0 0 0 0 0 0 0 0 0 0

GEFSSE_con_cape1000_006.txt.gz
Probability
0 0 100 100 100 100 100 100 100 100 100 100 100 100 100 100 100 100 100 100 100 100 100 100 100 100 100 100 100 100 97 81 65 84 100 100 100 100 100 100 100 100 100
6 16 100 100 100 100 100 100 100 100 100 100 100 100 100 100 100 100 100 100 100 100 100 100 100 100 100 100 100 94 65 65 65 61 87 100 100 100 100 100 100 100 100
45 87 100 100 100 100 100 100 100 100 100 100 100 100 100 100 100 100 100 100 100 100 100 100 100 100 100 100 100 94 94 90 90 90 97 71 100 100 94 97 100 100 100
87 97 100 100 100 100 100 100 100 100 100 100 100 100 100 100 100 100 100 100 100 100 94 90 97 84 97 97 100 90 77 45 39 71 55 29 94 100 90 90 100 100 100
100 100 100 100 100 100 100 100 100 100 100 100 100 100 100 100 100 100 100 100 100 94 81 65 55 71 100 94 90 74 32 16 16 29 26 87 100 100 87 81 97 100 100
97 94 100 100 100 100 100 100 100 100 100 100 100 100 100 100 100 100 100 100 100 97 97 90 87 100 94 81 61 19 6 0 10 10 45 90 94 65 55 81 94 100 100
90 77 77 100 100 100 100 100 100 100 100 100 100 100 100 100 100 100 94 87 87 84 94 97 94 77 58 32 10 0 0 0 0 6 68 71 68 71 48 35 52 71 97
97 87 100 100 100 100 100 100 100 100 100 100 100 100 100 100 100 100 97 87 87 94 90 58 16 6 10 3 0 0 0 0 0 0 23 32 6 10 16 6 0 3 16
100 94 97 100 100 100 100 100 97 97 97 97 97 100 100 100 97 94 97 84 94 100 65 13 3 0 0 0 0 0 0 0 0 0 0 3 0 0 0 0 0 0 0
100 97 100 100 100 100 100 97 100 100 97 97 97 100 97 87 87 84 94 68 61 87 84 26 3 0 0 0 0 0 0 0 0 0 0 0 0 0 0 0 0 0 0
100 97 100 100 100 100 100 100 100 100 100 100 97 97 94 90 97 97 84 55 29 71 42 6 0 0 0 0 0 0 0 0 0 0 0 0 0 0 0 0 0 0 0
100 90 87 90 100 97 100 100 100 100 100 100 100 94 90 97 94 87 94 94 90 81 39 16 3 0 0 0 0 0 0 0 0 0 0 3 10 13 10 13 19 23 10
65 39 13 90 100 97 100 100 100 94 100 100 100 97 100 94 94 81 68 65 45 19 0 0 0 0 0 0 0 0 0 0 0 0 0 13 48 74 81 84 87 90 90
13 0 0 97 100 97 94 97 94 90 94 87 100 100 97 97 68 19 13 0 0 0 0 0 0 0 0 0 0 0 0 0 0 0 0 42 26 29 26 29 58 71 87
23 0 0 84 100 100 100 94 58 65 68 77 87 100 97 42 16 6 13 23 6 0 0 0 0 0 0 0 0 0 0 0 0 0 0 23 3 3 3 3 6 13 32
52 16 0 55 100 100 100 100 84 42 97 35 58 81 97 87 90 94 87 87 32 19 3 3 0 0 0 0 0 0 0 0 0 3 3 3 3 0 0 0 0 3 3
39 35 19 58 100 100 100 100 97 94 94 55 71 81 65 48 87 87 68 35 13 6 0 3 0 0 0 0 0 0 0 0 0 13 10 3 0 0 0 0 0 0 0
26 35 16 3 97 100 100 100 100 100 94 84 58 58 29 29 23 32 6 3 16 0 0 3 0 0 0 0 3 3 3 13 13 10 6 0 0 0 0 0 0 0 0
19 42 39 55 97 97 97 94 90 81 77 55 39 19 3 0 0 0 0 3 0 0 0 0 0 0 0 0 0 0 0 0 0 0 0 0 0 0 0 0 0 0 0
23 68 90 97 97 94 94 87 68 26 10 6 3 3 0 0 0 0 0 0 0 0 0 0 0 0 0 0 0 0 0 0 0 0 0 0 0 0 0 0 0 0 0
35 74 90 90 97 94 87 74 39 6 0 0 0 0 0 0 0 0 0 0 0 0 0 0 0 0 0 0 0 0 0 0 0 0 0 0 0 0 0 0 0 0 0
32 74 87 94 84 87 94 65 10 0 0 0 0 0 0 0 0 0 0 0 0 0 0 0 0 0 0 0 0 0 0 0 0 0 0 0 0 0 0 0 0 0 0
16 35 42 68 61 45 26 3 0 0 0 0 0 0 0 0 0 0 0 0 0 0 0 0 0 0 0 0 0 0 0 0 0 0 0 0 0 0 0 0 0 0 0
6 16 19 26 19 10 3 3 0 0 0 0 0 0 0 0 0 0 0 0 0 0 0 0 0 0 0 0 0 0 0 0 0 0 0 0 0 0 0 0 0 0 0
0 3 3 3 0 0 0 0 0 0 0 0 0 0 0 0 0 0 0 0 0 0 0 0 0 0 0 0 0 0 0 0 0 0 0 0 0 0 0 0 0 0 0
0 0 0 0 0 0 0 0 0 0 0 0 0 0 0 0 0 0 0 0 0 0 0 0 0 0 0 0 0 0 0 0 0 0 0 0 0 0 0 0 0 0 0

GEFSSE_con_cape1000_012.txt.gz
Probability
29 100 100 100 100 100 100 100 100 100 100 100 100 100 100 100 100 100 100 100 100 100 100 100 100 100 100 100 100 100 84 39 6 19 81 97 94 100 100 100 100 100 100
81 100 100 100 100 100 100 100 100 100 100 100 100 100 100 100 100 100 100 100 100 100 100 100 100 100 100 100 97 81 52 23 16 16 23 94 97 90 87 90 94 100 100
97 100 100 100 100 100 100 100 100 100 100 100 100 100 100 100 100 100 100 100 97 97 90 90 94 97 100 97 90 65 19 10 26 81 84 97 100 97 87 71 100 100 100
100 97 100 100 100 100 100 100 100 100 100 100 100 100 100 100 100 100 100 97 90 87 81 94 94 97 100 94 71 48 13 19 68 90 61 90 100 100 100 94 97 97 97
100 100 100 100 100 100 100 100 100 100 100 100 100 100 100 100 100 100 97 84 84 90 84 77 81 97 97 81 65 29 16 26 74 52 45 94 97 100 97 94 94 97 100
100 100 100 100 100 100 100 100 100 100 100 100 100 100 100 100 100 90 84 84 94 90 81 77 84 90 87 68 32 3 0 3 6 3 77 97 94 90 90 81 84 97 100
100 100 100 100 100 100 100 100 100 100 100 100 100 100 100 100 87 71 81 97 97 97 97 90 90 84 68 29 6 0 0 3 0 3 71 81 74 77 68 68 84 100 100
100 100 100 100 100 100 100 100 100 100 100 100 97 97 97 100 94 90 94 90 94 94 90 74 52 39 13 3 0 0 0 0 0 0 29 16 45 39 32 6 6 29 65
100 100 100 100 100 100 100 100 100 100 94 97 97 97 94 97 100 100 100 94 94 94 68 16 13 6 0 0 0 0 3 3 0 0 3 0 6 6 0 3 0 3 10
100 97 100 100 100 100 100 100 100 97 97 97 97 94 94 97 97 100 100 94 90 81 48 19 10 3 0 0 0 0 3 0 0 0 0 0 0 0 0 0 0 0 0
100 100 100 100 100 100 100 100 100 97 97 97 97 97 97 100 100 100 97 94 97 81 52 16 3 3 0 0 3 10 3 0 0 0 0 3 3 3 3 0 0 0 0
100 100 100 100 100 97 97 97 100 100 100 100 100 97 100 100 100 100 100 100 100 94 68 35 29 16 3 0 0 0 0 0 0 0 3 29 29 13 10 3 3 3 6
100 97 97 97 100 100 100 100 100 100 100 100 100 100 100 100 100 100 84 100 100 97 48 39 32 3 0 0 0 0 0 0 0 0 19 77 81 74 65 58 81 90 90
87 77 77 81 97 100 97 100 100 100 100 100 100 100 100 100 100 100 100 94 94 71 61 19 29 6 3 0 0 0 0 0 0 0 23 87 81 77 65 52 48 58 68
74 55 71 100 100 100 100 100 100 100 100 100 100 97 97 100 100 97 94 97 90 68 42 65 26 32 3 6 6 0 0 0 0 0 13 71 71 58 42 32 29 29 32
65 42 77 100 100 100 100 100 100 97 100 100 100 97 94 100 100 100 100 100 100 90 74 74 39 32 35 42 13 19 6 0 6 10 3 26 48 55 55 39 32 26 19
81 81 94 100 100 100 100 100 100 100 100 100 100 100 94 100 100 97 100 87 77 71 42 52 29 42 29 13 19 19 3 6 3 13 10 3 3 29 48 39 35 23 19
97 100 100 74 100 100 100 100 100 97 97 97 94 87 87 77 68 74 77 58 55 35 26 32 23 13 16 3 0 0 0 3 3 13 10 3 0 0 16 13 16 23 13
100 100 100 100 100 100 100 100 97 97 94 84 77 65 58 19 10 29 29 29 19 16 13 0 0 0 0 0 0 0 0 0 0 0 0 0 0 0 0 3 10 10 6
100 100 100 100 100 100 97 97 94 84 74 61 42 45 23 6 3 10 13 3 3 6 3 0 0 0 0 0 0 0 0 0 0 0 0 0 0 0 0 0 0 0 0
100 100 100 100 97 97 97 90 84 71 48 35 23 16 3 3 3 0 0 0 0 0 0 0 0 0 0 0 0 0 0 0 0 0 0 0 0 0 0 0 0 0 0
97 100 100 97 97 97 94 97 81 58 29 10 3 3 0 0 0 0 0 0 0 0 0 0 0 0 0 0 0 0 0 0 0 0 0 0 0 0 0 0 0 0 0
94 97 100 97 97 97 94 74 45 23 6 0 0 0 0 0 0 0 0 0 0 0 0 0 0 0 0 0 0 0 0 0 0 0 0 0 0 0 0 0 0 0 0
94 97 97 97 97 94 81 45 29 13 6 3 0 0 0 0 0 0 0 0 0 0 0 0 0 0 0 0 0 0 0 0 0 0 0 0 0 0 0 0 0 0 0
90 94 97 97 94 77 68 61 58 23 10 3 0 0 0 0 0 0 0 0 0 0 0 0 0 0 0 0 0 0 0 0 0 0 0 0 0 0 0 0 0 0 0
77 74 68 77 61 58 35 26 16 3 0 0 0 0 0 0 0 0 0 0 0 0 0 0 0 0 0 0 0 0 0 0 0 0 0 0 0 0 0 0 0 0 0

GEFSSE_con_cape1000_018.txt.gz
Probability
97 100 100 100 100 100 100 100 100 100 100 100 100 100 100 100 100 100 100 100 100 100 100 100 100 100 100 100 94 84 65 71 61 90 100 100 100 100 100 100 100 100 100
97 100 100 100 100 100 100 100 100 100 100 100 100 100 100 100 100 100 100 100 100 100 100 100 100 100 100 94 84 58 35 52 48 58 74 97 97 100 100 100 100 100 100
100 100 100 100 100 100 100 100 100 100 100 100 100 100 100 100 100 100 100 100 100 100 100 100 100 100 97 94 74 48 39 48 61 68 74 77 94 100 100 100 100 100 100
100 100 100 100 100 100 100 100 100 100 100 100 100 100 100 100 100 100 100 100 100 100 100 100 100 97 97 94 68 45 48 61 71 58 29 65 90 100 100 100 100 100 100
87 100 100 100 100 100 100 100 100 100 100 100 100 100 100 100 100 100 100 100 100 100 100 100 100 97 97 81 65 58 42 42 39 10 23 55 84 100 100 100 100 100 100
71 100 100 100 100 100 100 100 100 100 100 100 100 100 100 100 100 100 100 100 100 100 100 100 100 97 94 74 68 39 23 23 6 3 26 58 84 97 97 100 100 100 100
65 100 100 100 100 100 100 100 100 100 100 100 100 100 100 100 100 100 100 100 100 100 100 100 100 97 94 68 48 39 26 23 0 13 45 61 77 94 94 94 100 100 100
90 100 100 100 100 100 100 100 100 100 100 100 100 100 100 100 100 100 100 100 100 100 100 100 94 90 81 61 42 26 19 13 13 48 42 48 77 77 81 81 77 94 94
100 100 100 100 100 100 100 100 100 100 100 100 100 100 100 100 100 100 100 100 100 100 97 87 84 74 68 48 35 19 6 0 0 0 26 29 65 61 42 32 42 55 58
100 100 100 100 100 100 100 100 100 100 100 100 100 100 100 100 100 100 100 100 97 97 90 84 77 71 58 39 23 23 3 3 0 0 0 13 55 45 23 10 3 10 16
100 100 100 100 100 100 100 100 100 100 100 100 97 97 100 94 97 100 100 100 97 97 87 84 74 61 48 13 13 26 13 0 0 0 0 10 58 23 13 13 6 3 3
97 97 100 97 97 100 100 100 90 94 97 97 97 97 90 32 19 87 100 100 100 100 97 81 74 61 19 3 0 0 0 0 0 0 0 23 65 32 19 23 23 6 3
94 100 100 97 97 90 90 90 97 94 97 71 61 81 58 29 16 35 61 100 97 100 68 35 29 16 6 0 0 0 0 0 0 0 3 48 87 77 35 48 61 58 58
100 100 100 97 94 81 87 90 87 77 65 35 35 10 3 16 23 3 0 6 29 29 16 0 0 0 0 0 0 0 0 0 0 0 3 77 97 100 94 90 100 100 100
100 100 100 97 87 84 74 74 84 77 71 32 61 42 10 16 23 13 6 0 0 0 0 0 0 0 0 0 0 0 0 0 0 0 0 74 97 100 100 94 94 94 87
100 100 100 97 90 84 81 81 90 87 74 71 61 58 48 29 10 13 6 3 0 0 0 0 0 0 0 0 0 0 0 0 0 0 0 0 71 87 90 84 77 74 68
81 94 100 97 90 87 81 77 94 94 84 68 39 26 29 10 6 0 0 0 0 0 0 0 0 0 0 0 0 0 0 0 0 0 0 0 0 3 55 77 77 71 39
68 74 94 100 87 48 39 52 77 74 61 35 19 6 6 3 3 0 0 0 0 0 0 0 0 0 0 0 0 0 0 0 0 0 0 0 0 0 0 0 45 42 29
58 81 87 90 58 42 23 10 23 26 23 10 3 0 0 0 0 0 0 0 0 0 0 0 0 0 0 0 0 0 0 0 0 0 0 0 0 0 0 0 0 6 3
48 61 90 94 81 55 19 6 3 3 6 3 0 0 0 0 0 0 0 0 0 0 0 0 0 0 0 0 0 0 0 0 0 0 0 0 0 0 0 0 0 0 0
39 48 81 94 84 65 45 13 3 0 0 0 0 0 0 0 0 0 0 0 0 0 0 0 0 0 0 0 0 0 0 0 0 0 0 0 0 0 0 0 0 0 0
16 35 65 94 81 61 39 10 0 0 0 0 0 0 0 0 0 0 0 0 0 0 0 0 0 0 0 0 0 0 0 0 0 0 0 0 0 0 0 0 0 0 0
32 35 61 97 84 55 26 3 0 0 0 0 0 0 0 0 0 0 0 0 0 0 0 0 0 0 0 0 0 0 0 0 0 0 0 0 0 0 0 0 0 0 0
48 52 81 87 71 42 10 3 0 0 0 0 0 0 0 0 0 0 0 0 0 0 0 0 0 0 0 0 0 0 0 0 0 0 0 0 0 0 0 0 0 0 0
68 84 84 68 32 13 3 0 0 0 0 0 0 0 0 0 0 0 0 0 0 0 0 0 0 0 0 0 0 0 0 0 0 0 0 0 0 0 0 0 0 0 0
61 74 55 16 6 0 0 0 0 0 0 0 0 0 0 0 0 0 0 0 0 0 0 0 0 0 0 0 0 0 0 0 0 0 0 0 0 0 0 0 0 0 0

GEFSSE_con_cape1000_024.txt.gz
Probability
0 71 100 100 100 100 100 100 100 100 100 100 100 100 100 100 100 100 100 100 100 100 100 100 100 100 100 100 100 100 100 100 100 100 100 97 100 100 100 100 100 94 100
32 97 100 100 100 100 100 100 100 100 100 100 100 100 100 100 100 100 100 100 100 100 100 100 100 100 100 100 97 97 77 81 87 97 97 97 100 100 100 100 100 100 97
90 100 100 100 100 100 100 100 100 100 100 100 100 100 100 100 100 100 100 100 100 100 100 100 100 100 100 94 94 84 74 68 65 74 94 87 100 100 100 100 100 100 100
97 100 100 100 100 100 100 100 100 100 100 100 100 100 100 100 100 100 100 100 100 100 100 100 94 90 94 94 81 65 42 35 45 45 45 71 100 100 100 100 100 100 100
100 100 100 100 100 100 100 100 100 100 100 100 100 100 100 100 100 100 100 100 100 100 100 100 97 94 90 84 65 39 19 29 29 26 39 61 94 100 100 100 100 100 100
100 100 100 100 100 100 100 100 100 100 100 100 100 100 100 100 100 100 100 100 100 100 100 100 97 97 90 74 61 35 29 35 13 23 45 71 94 100 100 100 100 100 100
100 100 100 100 100 100 100 100 100 100 100 100 100 100 100 100 100 100 100 100 100 100 100 97 97 97 87 68 48 19 23 23 10 39 58 77 90 97 94 97 100 100 100
100 100 100 100 100 100 100 100 100 100 100 100 100 100 100 100 100 100 100 100 100 100 100 100 97 87 77 68 29 13 16 16 19 39 68 71 81 94 94 97 100 100 100
100 100 100 100 100 100 100 100 100 100 100 100 100 100 100 100 100 100 100 100 100 100 100 97 90 81 68 45 26 10 3 16 3 32 48 55 77 90 97 94 100 100 100
100 100 100 100 100 100 100 100 100 100 100 100 100 100 100 100 100 100 100 100 100 100 100 87 81 77 61 39 26 6 6 13 0 10 16 35 74 77 71 68 74 81 87
100 100 100 100 100 100 100 100 100 100 100 100 100 100 100 100 100 100 100 100 100 100 94 87 71 71 55 26 10 6 10 0 0 0 0 23 65 68 61 42 39 45 58
100 100 97 94 100 97 100 100 100 100 100 94 94 97 97 65 55 100 100 100 100 100 90 77 74 65 32 3 0 0 0 0 0 0 0 10 58 65 52 35 26 19 19
77 100 97 94 94 94 94 94 94 90 94 94 90 90 42 13 10 61 23 81 100 100 68 52 19 6 3 3 0 0 0 0 0 0 0 10 48 65 48 55 42 23 23
71 87 90 94 94 94 74 94 90 81 71 52 32 39 6 6 3 3 3 6 23 23 16 6 3 0 0 0 0 0 0 0 0 0 0 10 55 77 61 81 74 68 90
74 71 87 90 84 81 68 84 84 61 52 16 13 6 6 3 3 3 0 3 3 3 0 0 0 0 0 0 0 0 0 0 0 0 0 6 45 58 52 42 58 71 84
77 71 74 84 81 71 65 74 68 42 13 10 6 6 3 3 3 0 0 0 0 0 0 0 0 0 0 0 0 0 0 0 0 0 0 0 3 3 13 13 13 16 23
74 61 55 81 81 65 68 61 39 29 13 6 6 3 6 3 3 0 0 0 0 0 0 0 0 0 0 0 0 0 0 0 0 0 0 0 0 0 0 0 0 0 0
81 61 55 77 81 68 65 55 26 16 10 10 6 6 13 6 0 0 0 0 0 0 0 0 0 0 0 0 0 0 0 0 0 0 0 0 0 0 0 0 0 0 0
94 68 77 81 74 74 68 39 13 10 6 6 6 0 0 3 0 0 0 0 0 0 0 0 0 0 0 0 0 0 0 0 0 0 0 0 0 0 0 0 0 0 0
90 87 84 77 68 71 55 26 10 6 3 0 0 0 0 0 0 0 0 0 0 0 0 0 0 0 0 0 0 0 0 0 0 0 0 0 0 0 0 0 0 0 0
71 84 84 77 68 61 39 16 13 3 0 0 0 0 0 0 0 0 0 0 0 0 0 0 0 0 0 0 0 0 0 0 0 0 0 0 0 0 0 0 0 0 0
71 74 77 74 65 48 26 13 0 0 0 0 0 0 0 0 0 0 0 0 0 0 0 0 0 0 0 0 0 0 0 0 0 0 0 0 0 0 0 0 0 0 0
65 71 74 65 45 26 10 0 0 0 0 0 0 0 0 0 0 0 0 0 0 0 0 0 0 0 0 0 0 0 0 0 0 0 0 0 0 0 0 0 0 0 0
48 58 55 45 16 6 0 0 0 0 0 0 0 0 0 0 0 0 0 0 0 0 0 0 0 0 0 0 0 0 0 0 0 0 0 0 0 0 0 0 0 0 0
26 35 32 10 3 0 0 0 0 0 0 0 0 0 0 0 0 0 0 0 0 0 0 0 0 0 0 0 0 0 0 0 0 0 0 0 0 0 0 0 0 0 0
19 19 13 3 0 0 0 0 0 0 0 0 0 0 0 0 0 0 0 0 0 0 0 0 0 0 0 0 0 0 0 0 0 0 0 0 0 0 0 0 0 0 0

GEFSSE_con_cape1000_030.txt.gz
Probability
10 52 100 100 100 100 100 100 100 100 100 100 100 100 100 100 100 100 100 100 100 100 100 100 100 100 100 100 100 100 100 100 100 100 100 100 100 100 100 90 77 81 100
13 90 100 100 100 100 100 100 100 100 100 100 100 100 100 100 100 100 100 100 100 100 100 100 100 100 100 100 100 90 94 100 100 100 100 100 100 100 100 90 87 100 100
48 100 100 100 100 100 100 100 100 100 100 100 100 100 100 100 100 100 100 100 100 100 100 100 100 100 100 97 94 77 77 90 94 100 97 94 97 100 100 97 94 100 100
71 100 100 100 100 100 100 100 100 100 100 100 100 100 100 100 100 100 100 100 100 100 100 100 100 97 97 84 61 42 42 55 65 84 94 81 100 100 100 100 100 97 100
81 100 100 100 100 100 100 100 100 100 100 100 100 100 100 100 100 100 100 100 100 100 100 100 94 94 84 61 32 16 16 35 48 58 84 97 100 100 100 100 100 100 100
61 97 100 100 100 100 100 100 100 100 100 100 100 100 100 100 100 100 100 100 100 100 100 100 94 90 77 39 19 13 16 29 39 71 81 90 100 100 100 100 100 100 100
65 90 100 100 100 100 100 100 100 100 100 100 100 100 100 100 100 100 100 100 100 100 100 100 97 90 61 42 19 13 13 29 65 61 77 68 100 100 100 97 100 100 100
61 84 100 100 100 100 100 100 100 100 100 100 100 100 100 100 100 100 100 100 100 100 100 97 94 77 58 26 10 13 13 32 32 39 58 55 97 94 94 97 100 100 100
55 77 100 100 100 100 100 100 100 100 100 100 100 100 100 100 100 100 100 100 100 100 100 94 81 68 39 19 6 3 13 19 32 35 29 52 90 97 97 97 100 97 100
74 94 100 100 100 100 100 100 100 100 100 100 100 100 100 100 100 100 100 100 100 100 97 90 77 61 39 23 10 6 6 19 16 19 19 65 87 94 84 77 77 87 90
100 100 100 100 100 100 100 100 100 100 100 100 100 100 100 100 97 100 97 100 100 100 97 84 71 61 42 19 13 3 3 0 6 13 23 52 58 71 68 58 55 52 48
100 100 100 100 100 100 100 100 100 100 100 100 100 100 100 100 100 100 100 100 100 97 90 77 68 52 19 3 3 0 0 0 0 3 23 39 55 52 48 42 29 23 16
100 100 100 100 100 97 100 100 100 100 100 100 100 100 100 100 100 100 100 100 100 100 87 68 52 13 3 3 0 0 0 0 0 0 23 26 39 32 45 35 29 13 10
100 100 100 100 100 100 100 100 100 100 100 100 100 100 100 100 100 100 100 100 100 100 87 52 26 16 6 3 0 0 0 0 0 0 32 32 35 32 29 23 16 13 13
100 100 100 100 100 100 100 100 100 100 100 100 100 100 100 100 100 100 100 100 97 94 81 48 29 26 10 3 0 0 0 0 0 0 16 16 19 23 16 16 16 16 10
100 100 100 100 100 100 100 100 100 100 100 100 100 100 100 97 100 100 100 100 97 87 58 48 26 29 6 0 0 0 0 0 0 0 0 10 6 3 3 3 3 6 6
100 100 100 100 100 100 100 100 100 100 100 100 100 100 100 100 100 100 97 94 90 84 71 55 32 10 6 0 0 0 0 0 0 0 0 0 0 0 0 0 0 0 0
100 100 100 100 100 100 100 100 100 100 100 100 100 97 97 97 97 97 90 81 77 65 42 42 19 3 0 0 0 0 0 0 0 0 0 0 0 0 0 0 0 0 0
100 100 100 100 100 100 100 100 100 97 97 94 90 90 90 87 87 84 71 61 45 45 29 10 10 3 3 6 0 0 0 0 0 0 0 0 0 0 0 0 0 0 0
100 100 100 100 100 100 97 97 94 87 74 65 58 55 58 61 55 45 32 26 23 10 6 6 3 3 3 3 0 0 0 0 0 0 0 0 0 0 0 0 0 0 0
100 100 100 100 100 100 97 97 87 74 39 23 19 19 23 19 19 23 16 10 3 3 3 0 0 0 0 0 0 0 0 0 0 0 0 0 0 0 0 0 0 0 0
100 100 100 100 100 97 90 87 68 26 6 3 3 0 0 0 6 0 3 0 0 0 0 0 0 0 0 0 0 0 0 0 0 0 0 0 0 0 0 0 0 0 0
100 100 100 100 97 90 87 58 19 6 0 0 0 0 0 0 0 0 0 0 0 0 0 0 0 0 0 0 0 0 0 0 0 0 0 0 0 0 0 0 0 0 0
87 97 97 97 87 87 77 35 19 16 6 0 0 0 0 0 0 0 0 0 0 0 0 0 0 0 0 0 0 0 0 0 0 0 0 0 0 0 0 0 0 0 0
84 94 97 90 87 77 52 32 23 13 3 0 0 0 0 0 0 0 0 0 0 0 0 0 0 0 0 0 0 0 0 0 0 0 0 0 0 0 0 0 0 0 0
84 84 81 74 65 39 29 16 19 6 0 0 0 0 0 0 0 0 0 0 0 0 0 0 0 0 0 0 0 0 0 0 0 0 0 0 0 0 0 0 0 0 0

GEFSSE_con_cape1000_036.txt.gz
Probability
10 65 100 100 100 100 100 100 100 100 100 100 100 100 100 100 100 100 100 100 100 100 100 100 100 100 100 100 100 100 100 100 100 100 100 100 100 97 94 94 100 100 100
42 94 100 100 100 100 100 100 100 100 100 100 100 100 100 100 100 100 100 100 100 100 100 100 100 100 100 100 94 94 97 94 90 97 100 97 94 94 90 100 100 100 100
58 100 100 100 100 100 100 100 100 100 100 100 100 100 100 100 100 100 100 100 100 100 100 100 100 97 97 81 74 74 87 87 94 100 100 100 100 94 94 100 100 100 100
81 97 100 100 100 100 100 100 100 100 100 100 100 100 100 100 100 100 100 100 100 100 100 100 94 90 65 39 32 45 58 68 87 97 94 100 100 100 100 97 100 100 97
87 100 100 100 100 100 100 100 100 100 100 100 100 100 100 100 100 100 100 100 100 100 100 94 87 68 42 23 19 16 26 58 87 90 74 90 100 100 100 100 97 100 100
90 100 100 100 100 100 100 100 100 100 100 100 100 100 100 100 100 100 100 100 100 100 100 90 84 52 35 10 6 3 16 61 65 45 65 81 100 100 100 100 100 97 100
100 100 100 100 100 100 100 100 100 100 100 100 100 100 100 100 100 100 100 100 100 100 100 90 81 52 26 10 3 6 19 42 32 19 39 84 94 100 100 100 97 97 100
100 100 100 100 100 100 100 100 100 100 100 100 100 100 100 100 100 100 100 100 100 100 100 94 74 55 23 19 10 6 29 23 26 13 42 84 90 97 100 100 100 100 94
100 100 100 100 100 100 100 100 100 100 100 100 100 100 100 100 100 100 100 100 100 100 100 87 71 42 26 19 16 10 23 39 19 19 39 81 90 97 97 97 97 97 97
100 100 100 100 100 100 100 100 100 100 100 100 100 100 100 100 100 100 100 100 100 100 100 84 65 48 35 29 23 16 26 19 0 16 45 74 94 87 84 81 81 84 87
100 100 100 100 100 100 100 100 100 100 100 100 100 100 100 100 100 100 94 100 100 100 100 84 71 61 58 45 45 48 35 0 0 29 42 74 87 90 77 68 61 68 71
100 100 100 100 100 100 100 100 100 100 100 100 100 100 100 100 100 100 100 100 100 100 100 87 81 71 55 23 29 39 3 0 0 32 45 77 77 71 58 55 39 35 35
97 100 100 100 100 100 100 100 100 100 100 100 100 100 100 100 100 100 100 100 100 100 97 94 81 55 32 26 35 3 0 0 6 26 55 74 71 68 58 48 32 26 23
100 100 100 100 100 100 100 100 100 100 100 97 100 100 100 100 100 97 94 97 100 100 100 90 77 58 42 16 10 3 3 0 16 23 35 58 61 58 45 39 26 23 19
100 100 100 100 100 100 100 100 100 100 100 100 100 100 100 100 100 100 94 94 100 100 97 100 84 65 39 23 10 3 0 0 13 16 19 45 45 39 35 29 19 19 16
100 100 100 100 100 100 100 100 100 100 100 100 100 100 100 100 100 100 100 97 100 100 94 94 84 74 58 58 32 13 0 3 6 13 13 13 23 23 23 16 13 13 13
100 100 100 100 100 100 100 100 100 100 100 100 100 100 100 100 100 97 97 100 97 100 100 84 61 68 55 35 29 10 13 16 6 3 6 3 0 3 3 3 3 3 6
100 100 100 100 100 100 100 100 100 97 97 90 87 90 90 97 94 97 97 84 84 81 74 81 58 45 39 29 23 19 16 16 6 6 3 3 0 0 0 0 0 0 0
100 100 100 100 100 100 100 100 97 94 90 87 77 74 74 71 74 74 74 77 71 55 48 23 23 29 19 10 10 13 0 6 3 0 0 0 0 0 0 0 0 0 0
100 100 100 100 100 100 97 97 94 81 77 61 58 45 42 42 55 58 52 42 39 35 26 16 10 6 3 6 0 0 0 0 0 0 0 0 0 0 0 0 0 0 0
100 100 100 100 100 100 97 97 90 68 55 45 26 32 16 13 13 26 26 29 29 19 16 0 3 0 0 0 0 0 0 0 0 0 0 0 0 0 0 0 0 0 0
100 100 100 100 100 100 97 94 81 61 39 26 19 10 6 6 10 6 10 13 10 3 0 0 0 0 0 0 0 0 0 0 0 0 0 0 0 0 0 0 0 0 0
100 100 100 100 100 97 90 71 52 32 13 10 10 6 6 3 3 3 3 3 3 0 0 0 0 0 0 0 0 0 0 0 0 0 0 0 0 0 0 0 0 0 0
87 100 100 97 97 90 77 58 52 29 16 10 6 3 0 0 0 0 0 0 0 0 0 0 0 0 0 0 0 0 0 0 0 0 0 0 0 0 0 0 0 0 0
84 90 87 84 84 84 74 58 45 32 19 10 6 3 3 0 0 0 0 0 0 0 0 0 0 0 0 0 0 0 0 0 0 0 0 0 0 0 0 0 0 0 0
77 81 77 74 65 65 61 45 35 23 6 6 3 0 0 0 0 0 0 0 0 0 0 0 0 0 0 0 0 0 0 0 0 0 0 0 0 0 0 0 0 0 0

GEFSSE_con_cape1000_042.txt.gz
Probability
87 100 100 100 100 100 100 100 100 100 100 100 100 100 100 100 100 100 100 100 100 100 100 100 100 100 100 100 100 100 100 100 100 100 100 100 100 100 100 100 100 100 100
90 100 100 100 100 100 100 100 100 100 100 100 100 100 100 100 100 100 100 100 100 100 100 100 100 100 100 100 100 100 100 100 100 100 100 100 100 100 100 100 100 100 100
97 100 100 100 100 100 100 100 100 100 100 100 100 100 100 100 100 100 100 100 100 100 100 100 100 100 100 97 94 94 94 97 100 100 97 77 97 100 100 100 100 100 100
97 100 100 100 100 100 100 100 100 100 100 100 100 100 100 100 100 100 100 100 100 100 100 100 87 77 77 68 68 81 90 94 97 84 61 71 84 100 100 100 100 100 100
97 100 100 100 100 100 100 100 100 100 100 100 100 100 100 100 100 100 100 100 100 100 100 90 77 55 48 42 35 45 68 71 74 32 29 65 77 94 100 100 100 100 100
97 100 100 100 100 100 100 100 100 100 100 100 100 100 100 100 100 100 100 100 100 100 100 87 58 48 42 23 29 35 48 58 10 3 29 61 84 94 97 97 100 100 100
100 100 100 100 100 100 100 100 100 100 100 100 100 100 100 100 100 100 100 100 100 100 97 84 68 39 19 10 13 35 35 39 0 0 32 55 74 94 97 97 100 100 100
100 100 100 100 100 100 100 100 100 100 100 100 100 100 100 100 100 100 100 100 100 100 100 90 71 48 39 26 19 39 39 26 6 26 29 55 68 97 97 100 100 100 100
100 100 100 100 100 100 100 100 100 100 100 100 100 100 100 100 100 100 100 100 100 100 100 97 65 58 48 48 32 26 52 39 0 10 29 48 77 97 97 100 100 100 100
90 100 100 100 100 100 100 100 100 100 100 100 100 100 100 100 100 100 100 100 100 100 100 97 90 71 61 52 52 45 48 19 0 3 26 55 90 94 100 100 97 97 97
77 97 100 100 100 100 100 100 100 100 100 100 100 100 100 100 100 100 100 100 100 100 100 100 94 90 71 61 52 61 32 0 0 3 23 68 81 87 90 90 87 87 87
65 71 94 100 100 100 100 100 100 100 100 100 100 100 100 77 87 100 100 100 100 100 100 100 94 94 68 29 13 23 10 0 0 0 23 71 87 81 71 74 74 68 61
52 55 74 84 90 87 87 97 97 97 97 94 100 97 61 19 26 77 68 97 94 97 97 87 84 61 35 6 0 0 0 0 0 10 26 68 84 81 71 65 61 58 48
48 45 58 55 55 52 77 87 84 81 77 65 71 71 19 6 3 26 48 84 81 74 52 26 29 23 3 3 0 0 0 0 3 3 29 77 87 94 61 48 39 35 35
65 52 58 52 42 52 58 39 42 42 39 23 29 42 10 3 23 26 39 45 48 35 23 6 3 0 0 0 0 0 0 0 0 0 13 65 77 77 71 52 32 29 23
71 68 74 84 61 52 74 55 58 55 55 26 29 39 16 6 29 32 26 23 29 13 6 3 0 0 0 0 0 0 0 0 0 3 6 32 58 65 48 42 32 26 16
74 68 84 94 90 94 97 90 87 77 61 45 48 61 45 32 23 35 19 16 10 3 3 0 0 0 0 0 0 0 0 0 0 0 0 0 6 23 26 26 19 16 13
61 65 84 100 97 100 100 100 97 87 77 65 48 81 68 52 35 16 3 6 3 0 3 0 0 0 0 0 0 0 0 0 0 0 0 0 0 0 3 3 3 3 3
48 61 84 94 100 97 97 87 84 81 77 68 61 58 61 52 23 10 3 3 0 0 0 0 0 0 0 0 0 0 0 0 0 0 0 0 0 0 0 0 3 3 3
42 52 77 94 94 97 84 74 68 45 42 39 42 42 35 29 13 10 6 3 3 0 0 0 0 0 0 0 0 0 0 0 0 0 0 0 0 0 0 0 0 0 0
52 65 77 87 90 81 77 71 61 35 26 16 19 19 16 16 13 10 10 6 3 0 0 0 0 0 0 0 0 0 0 0 0 0 0 0 0 0 0 0 0 0 0
52 61 74 84 84 81 68 58 29 16 6 3 3 0 0 0 0 0 0 0 0 0 0 0 0 0 0 0 0 0 0 0 0 0 0 0 0 0 0 0 0 0 0
58 68 77 84 87 74 55 32 10 6 3 3 0 0 0 0 0 0 0 0 0 0 0 0 0 0 0 0 0 0 0 0 0 0 0 0 0 0 0 0 0 0 0
65 71 71 84 77 61 42 32 16 6 3 3 0 0 0 0 0 0 0 0 0 0 0 0 0 0 0 0 0 0 0 0 0 0 0 0 0 0 0 0 0 0 0
65 68 65 61 55 35 29 19 10 3 0 0 0 0 0 0 0 0 0 0 0 0 0 0 0 0 0 0 0 0 0 0 0 0 0 0 0 0 0 0 0 0 0
48 52 52 48 26 19 19 10 6 0 0 0 0 0 0 0 0 0 0 0 0 0 0 0 0 0 0 0 0 0 0 0 0 0 0 0 0 0 0 0 0 0 0

GEFSSE_con_cape1000_048.txt.gz
Probability
52 100 100 100 100 100 100 100 100 100 100 100 100 100 100 100 100 100 100 100 100 100 100 100 100 100 100 100 100 100 100 100 100 100 100 100 100 100 100 100 100 100 100
68 100 100 100 100 100 100 100 100 100 100 100 100 100 100 100 100 100 100 100 100 100 100 100 100 100 100 100 100 100 100 100 100 100 100 100 100 100 100 100 100 100 100
100 100 100 100 100 100 100 100 100 100 100 100 100 100 100 100 100 100 100 100 100 100 100 100 100 100 100 100 100 100 100 100 100 100 100 100 100 100 100 100 100 100 100
100 100 100 100 100 100 100 100 100 100 100 100 100 100 100 100 100 100 100 100 100 100 100 100 100 100 100 97 97 100 100 100 100 97 84 97 100 100 100 100 100 100 100
100 100 100 100 100 100 100 100 100 100 100 100 100 100 100 100 100 100 100 100 100 100 100 100 97 94 94 94 94 90 94 94 100 74 81 90 97 100 100 100 100 100 100
100 100 100 100 100 100 100 100 100 100 100 100 100 100 100 100 100 100 100 100 100 100 100 94 87 84 81 77 77 81 81 87 61 45 77 87 97 100 100 100 100 100 100
100 100 100 100 100 100 100 100 100 100 100 100 100 100 100 100 100 100 100 100 100 100 94 87 81 68 65 61 65 61 71 68 10 35 58 84 94 100 100 100 100 100 100
97 100 100 100 100 100 100 100 100 100 100 100 100 100 100 100 100 100 100 100 100 100 97 84 71 58 58 58 52 48 58 45 35 32 58 74 94 100 100 100 100 100 100
100 100 100 100 100 100 100 100 100 100 100 100 100 100 100 100 100 100 100 100 100 100 97 90 71 45 45 55 45 45 58 52 6 39 48 65 90 100 100 100 100 100 100
100 100 100 100 100 100 100 100 100 100 100 100 100 100 100 100 100 100 100 100 100 100 100 90 81 71 61 55 58 48 55 48 3 16 39 61 97 97 97 97 97 97 97
100 100 100 100 100 100 100 100 100 100 100 100 100 100 100 100 100 100 100 100 100 100 100 100 87 81 71 58 58 65 52 6 3 6 23 61 97 97 94 97 90 87 84
100 100 100 100 100 100 100 100 100 100 100 100 100 100 100 94 97 100 100 100 100 100 100 100 97 87 68 32 26 39 23 0 3 10 23 77 94 87 81 77 77 81 74
87 100 100 100 100 100 100 100 100 100 100 97 100 100 77 52 71 87 77 94 97 94 84 87 65 52 39 13 3 10 3 0 3 10 29 71 90 90 81 77 68 65 65
65 90 94 100 97 97 97 100 94 90 90 90 90 81 45 23 19 26 13 39 71 74 65 35 23 19 10 0 0 0 0 3 3 10 23 68 87 87 71 68 71 65 61
42 74 94 97 97 90 74 94 84 77 81 68 65 61 29 10 10 3 6 6 26 26 16 10 3 3 0 0 0 0 0 0 3 13 19 55 81 77 71 55 45 35 32
29 55 74 90 84 74 68 68 71 65 58 48 48 48 23 3 0 0 3 0 6 10 10 3 0 0 0 0 0 0 0 0 0 3 6 55 71 68 74 48 35 26 16
26 29 48 65 61 55 42 42 35 39 32 32 26 23 23 3 0 0 0 0 3 3 0 0 0 0 0 0 0 0 0 0 0 0 0 10 19 45 39 39 16 23 16
32 19 32 55 48 35 35 23 19 19 16 16 6 6 6 3 0 0 0 0 3 0 0 0 0 0 0 0 0 0 0 0 0 0 0 0 0 3 6 13 10 10 10
45 29 19 32 32 29 16 10 10 6 6 13 10 13 13 6 3 0 0 0 0 0 0 0 0 0 0 0 0 0 0 0 0 0 0 0 0 0 3 3 3 3 3
48 45 35 32 29 13 6 10 3 3 6 6 6 3 0 0 0 0 0 0 0 0 0 0 0 0 0 0 0 0 0 0 0 0 0 0 0 0 0 0 0 0 3
61 48 42 42 42 23 23 19 16 16 10 3 3 3 3 0 0 0 0 0 0 0 0 0 0 0 0 0 0 0 0 0 0 0 0 0 0 0 0 0 0 0 0
61 55 55 42 42 45 26 19 16 6 6 6 0 0 0 0 0 0 0 0 0 0 0 0 0 0 0 0 0 0 0 0 0 0 0 0 0 0 0 0 0 0 0
48 58 61 58 55 52 35 19 6 3 0 0 0 0 0 0 0 0 0 0 0 0 0 0 0 0 0 0 0 0 0 0 0 0 0 0 0 0 0 0 0 0 0
39 48 55 68 55 48 42 26 19 13 10 0 0 0 0 0 0 0 0 0 0 0 0 0 0 0 0 0 0 0 0 0 0 0 0 0 0 0 0 0 0 0 0
39 42 45 48 42 39 32 26 16 10 0 0 0 0 0 0 0 0 0 0 0 0 0 0 0 0 0 0 0 0 0 0 0 0 0 0 0 0 0 0 0 0 0
48 45 32 23 26 26 19 13 6 3 0 0 0 0 0 0 0 0 0 0 0 0 0 0 0 0 0 0 0 0 0 0 0 0 0 0 0 0 0 0 0 0 0

GEFSSE_con_cape1000_054.txt.gz
Probability
94 97 100 100 100 100 100 100 100 100 100 100 100 100 100 100 100 100 100 100 100 100 100 100 100 100 100 100 100 100 100 100 100 100 100 100 100 100 100 100 100 100 100
97 97 100 100 100 100 100 100 100 100 100 100 100 100 100 100 100 100 100 100 100 100 100 100 100 100 100 100 100 100 100 100 100 100 100 100 100 100 100 100 100 100 100
97 97 100 100 100 100 100 100 100 100 100 100 100 100 100 100 100 100 100 100 100 100 100 100 100 100 100 100 100 100 100 100 100 100 100 97 100 100 100 100 100 100 100
94 94 97 100 100 100 100 100 100 100 100 100 100 100 100 100 100 100 100 100 100 100 100 100 100 100 100 100 100 100 100 100 100 100 97 77 97 100 100 100 100 100 100
94 87 100 100 100 100 100 100 100 100 100 100 100 100 100 100 100 100 100 100 100 100 100 100 100 100 100 97 97 100 100 100 100 100 94 94 100 100 100 100 100 100 100
97 90 100 100 100 100 100 100 100 100 100 100 100 100 100 100 100 100 100 100 100 100 100 97 94 94 94 90 94 97 97 97 97 90 97 97 100 100 100 100 100 100 100
97 94 100 100 100 100 100 100 100 100 100 100 100 100 100 100 100 100 100 100 100 100 100 87 84 84 81 77 81 84 90 100 94 71 81 94 100 100 100 100 100 100 97
100 94 100 100 100 100 100 100 100 100 100 100 100 100 100 100 100 100 100 100 100 97 90 74 58 55 58 61 61 65 87 94 77 35 61 90 100 100 100 97 100 100 100
100 97 100 100 100 100 100 100 100 100 100 100 100 100 100 100 100 100 100 100 100 97 94 71 52 29 32 29 45 55 68 71 71 48 29 87 100 97 94 97 97 97 97
100 100 100 100 100 100 100 100 100 100 100 100 100 100 100 100 100 100 100 100 100 100 90 77 65 48 35 39 35 42 61 45 61 48 32 84 97 97 97 97 97 94 94
97 100 100 100 100 100 100 100 100 100 100 100 100 100 100 100 94 100 97 100 100 100 97 90 81 65 45 42 45 45 42 52 48 42 45 94 97 94 94 97 97 94 90
100 100 100 100 100 100 100 100 100 100 100 100 100 100 100 97 97 55 100 100 100 100 97 97 87 81 48 35 32 35 19 26 32 42 55 97 97 94 94 97 97 94 84
100 100 100 100 100 100 100 100 100 100 100 100 100 100 100 100 94 68 94 100 100 100 94 94 84 65 42 29 23 16 13 13 16 29 48 94 94 97 84 87 84 87 74
100 100 100 100 100 100 100 100 100 100 100 100 100 100 100 100 100 90 97 71 97 100 97 90 81 58 58 39 19 16 6 6 16 35 68 90 94 97 87 81 74 68 71
100 100 100 100 100 100 100 100 100 100 100 100 100 100 100 97 94 90 97 100 90 87 97 97 74 71 61 42 19 6 3 6 19 32 48 74 87 97 94 77 74 65 61
100 100 100 100 100 100 100 100 100 100 100 100 100 100 97 90 94 97 100 100 94 94 81 84 81 90 68 55 35 16 23 29 35 45 39 71 87 90 87 77 61 55 42
100 100 100 100 100 100 100 100 100 100 100 100 100 100 100 94 97 100 97 97 100 94 97 87 87 74 58 55 42 23 13 39 35 39 35 45 52 58 68 61 61 45 29
100 100 100 100 100 100 100 100 100 100 100 100 100 100 100 100 97 100 100 100 100 97 90 90 81 74 52 52 45 23 26 39 32 35 16 32 55 32 45 39 35 32 23
100 100 100 100 100 100 100 100 100 100 100 100 100 100 100 100 100 100 97 100 97 94 90 68 58 61 55 42 29 32 10 10 16 13 10 10 19 23 19 10 13 10 6
100 100 100 100 100 100 100 100 100 100 100 100 97 97 94 97 90 87 84 84 87 74 77 65 61 45 35 32 6 6 6 6 6 10 10 6 6 6 6 6 6 10 3
100 100 100 100 100 100 100 97 97 97 90 90 87 84 84 84 77 81 74 71 68 61 61 32 32 19 13 13 13 13 6 3 3 3 10 6 6 3 3 3 3 3 3
97 100 100 100 100 100 97 97 97 90 84 74 55 52 55 58 61 61 61 55 52 48 32 23 19 13 6 3 10 13 6 6 3 0 0 0 0 0 0 0 3 3 3
94 100 100 97 97 90 94 90 87 84 65 52 32 32 29 29 32 39 39 35 32 32 13 16 13 10 3 0 0 3 6 3 6 0 0 0 0 0 0 0 0 0 0
87 94 97 94 90 90 87 87 81 71 52 39 29 26 16 16 16 23 19 26 16 10 6 3 3 3 0 0 0 0 0 3 3 0 0 0 0 0 0 0 0 0 0
74 77 84 81 81 87 84 84 71 55 39 23 16 10 6 0 0 0 0 0 3 0 0 0 0 0 0 0 0 0 0 0 0 0 0 0 0 0 0 0 0 0 0
48 58 65 65 65 65 74 65 55 39 19 13 13 6 0 0 0 0 0 0 0 0 0 0 0 0 0 0 0 0 0 0 0 0 0 0 0 0 0 0 0 0 0

GEFSSE_con_cape1000_060.txt.gz
Probability
94 97 100 100 100 100 100 100 100 100 100 100 100 100 100 100 100 100 100 100 100 100 100 100 100 100 100 100 100 100 100 100 100 100 100 100 100 100 100 100 100 100 100
97 100 100 100 100 100 100 100 100 100 100 100 100 100 100 100 100 100 100 100 100 100 100 100 100 100 100 100 100 100 100 100 100 100 100 100 100 100 100 100 100 100 100
100 100 100 100 100 100 100 100 100 100 100 100 100 100 100 100 100 100 100 100 100 100 100 100 100 100 100 100 100 100 100 100 100 100 100 100 100 100 100 100 100 100 100
100 100 100 100 100 100 100 100 100 100 100 100 100 100 100 100 100 100 100 100 100 100 100 100 100 100 100 100 100 100 100 100 100 100 100 100 100 100 100 100 100 100 100
100 100 100 100 100 100 100 100 100 100 100 100 100 100 100 100 100 100 100 100 100 100 100 100 100 100 100 100 100 100 100 100 100 100 100 100 100 100 100 100 100 100 100
100 100 100 100 100 100 100 100 100 100 100 100 100 100 100 100 100 100 100 100 100 100 100 100 97 94 94 94 94 97 100 100 100 94 90 100 100 100 100 100 100 97 97
100 100 100 100 100 100 100 100 100 100 100 100 100 100 100 100 100 100 100 100 100 97 90 87 87 90 90 87 87 90 94 100 100 94 90 100 100 100 100 97 94 97 97
100 100 100 100 100 100 100 100 100 100 100 100 100 100 100 100 100 100 100 100 97 94 84 65 61 61 68 71 71 77 90 97 94 90 100 100 100 100 100 100 100 90 87
100 100 100 100 100 100 100 100 100 100 100 100 100 100 100 100 100 100 100 100 94 84 65 45 39 35 35 32 39 52 81 94 77 74 94 94 97 100 100 100 97 94 90
100 100 100 100 100 100 100 100 100 100 100 100 100 100 100 100 100 100 100 100 94 77 61 48 35 13 19 26 29 42 71 77 35 32 81 97 97 97 97 97 94 90 81
100 100 100 100 100 100 100 100 100 100 100 100 100 100 100 100 100 100 97 100 94 84 74 61 55 48 48 45 52 65 68 10 10 35 58 90 97 97 94 94 87 81 77
100 97 97 100 100 97 94 100 100 97 100 100 100 100 100 100 100 90 100 100 100 100 97 87 81 74 52 32 42 65 23 10 3 26 68 94 97 97 94 90 87 77 71
100 100 97 100 100 100 100 100 100 100 100 100 100 100 100 100 100 100 94 100 100 100 100 100 84 68 35 42 58 32 26 10 6 16 71 94 97 94 94 94 94 84 74
100 100 97 100 100 100 100 100 100 100 100 100 100 100 100 100 100 100 100 100 100 100 100 100 97 74 81 74 61 29 19 13 13 39 68 94 94 94 97 90 81 81 71
97 100 100 100 100 100 100 100 100 100 100 100 100 100 100 100 100 100 100 100 100 100 97 100 97 90 77 68 65 45 35 16 13 23 55 84 94 97 97 84 84 77 74
97 97 100 100 100 100 100 100 100 100 97 100 100 100 100 100 100 100 100 100 100 100 97 97 94 97 90 90 68 65 55 32 32 42 39 74 97 94 97 84 81 65 58
97 97 100 100 100 100 100 100 100 100 100 100 100 100 100 100 100 100 100 100 100 97 97 97 90 94 81 81 81 71 68 65 29 45 35 52 48 84 87 90 84 71 61
97 100 100 100 100 100 100 100 100 100 97 100 100 100 100 100 100 100 100 97 97 97 94 90 87 90 74 71 74 77 61 65 55 45 39 39 29 19 55 61 65 65 68
100 100 100 100 100 100 100 100 100 100 100 100 100 100 97 100 100 100 97 97 97 94 94 90 84 84 71 58 48 61 55 52 35 23 26 26 23 13 6 26 45 39 32
100 100 100 100 100 100 100 100 100 100 100 100 100 100 100 97 97 97 94 90 90 90 90 84 77 65 55 48 16 13 29 19 16 10 6 3 16 6 6 6 3 13 23
100 100 100 100 100 100 100 100 100 97 90 87 81 77 84 84 84 77 77 77 77 74 58 58 48 39 29 23 13 10 13 3 0 0 0 3 3 3 6 3 3 0 3
100 100 100 100 100 100 100 100 97 90 84 77 61 65 55 55 58 61 61 58 55 45 45 42 32 26 16 13 6 0 0 0 0 0 0 0 0 0 0 0 0 0 0
87 90 100 100 97 97 94 94 94 84 77 55 48 35 32 29 26 26 23 29 26 26 29 26 23 13 10 3 3 0 0 0 0 0 0 0 0 0 0 0 0 0 0
61 77 74 77 81 87 87 87 81 74 68 42 29 19 19 13 10 10 13 10 13 16 10 13 13 3 3 3 0 0 0 0 0 0 0 0 0 0 0 0 0 0 0
55 58 58 61 65 71 81 77 77 58 42 29 19 16 13 10 10 10 10 6 6 3 3 6 0 0 0 0 0 0 0 0 0 0 0 0 0 0 0 0 0 0 0
32 45 45 52 52 55 58 61 55 39 29 19 16 13 10 3 3 0 0 0 0 0 0 0 0 0 0 0 0 0 0 0 0 0 0 0 0 0 0 0 0 0 0

GEFSSE_con_cape1000_066.txt.gz
Probability
97 100 100 100 100 100 100 100 100 100 100 100 100 100 100 100 100 100 100 100 100 100 100 100 100 100 100 100 100 100 100 100 100 100 100 100 100 100 100 100 100 100 100
97 100 100 100 100 100 100 100 100 100 100 100 100 100 100 100 100 100 100 100 100 100 100 100 100 100 100 100 100 100 100 100 100 100 100 100 100 100 100 100 100 100 100
97 100 100 100 100 100 100 100 100 100 100 100 100 100 100 100 100 100 100 100 100 100 100 100 100 100 100 100 100 100 100 100 100 100 100 100 100 100 100 100 100 100 100
94 100 100 100 100 100 100 100 100 100 100 100 100 100 100 100 100 100 100 100 100 100 100 100 100 100 100 100 100 100 100 100 100 100 94 100 100 100 100 100 100 100 100
94 100 100 100 100 100 100 100 100 100 100 100 100 100 100 100 100 100 100 100 100 100 100 100 100 100 100 100 100 100 100 100 100 97 94 97 97 100 100 100 100 100 100
94 100 100 100 100 100 100 100 100 100 100 100 100 100 100 100 100 100 100 100 100 100 100 97 94 94 94 94 94 94 97 97 90 71 84 97 97 97 97 97 100 100 100
87 100 100 100 100 100 100 100 100 100 100 100 100 100 100 100 100 100 100 100 97 94 90 87 94 94 90 90 90 90 94 84 58 52 74 84 97 97 97 97 100 100 100
100 100 100 100 100 100 100 100 100 100 100 100 100 100 100 100 100 100 100 100 94 90 81 77 74 77 74 65 65 74 90 84 55 48 61 71 87 97 97 97 100 100 97
100 100 100 100 100 100 100 100 100 100 100 100 100 100 100 100 100 100 100 100 94 94 77 61 58 65 65 42 48 52 74 77 6 35 58 61 90 94 97 100 100 100 94
100 100 100 100 100 100 100 100 100 100 100 100 100 100 100 100 100 100 100 97 97 90 77 65 65 55 55 45 48 55 77 42 3 10 29 58 87 90 97 100 97 97 94
100 100 100 100 100 100 100 100 100 100 100 100 100 100 100 100 100 100 100 97 97 94 81 81 74 74 61 61 68 77 58 0 0 3 16 58 84 90 97 100 100 94 94
97 94 97 100 100 100 100 100 100 100 100 100 100 100 100 68 68 87 100 100 97 97 94 84 77 77 61 16 0 45 10 0 0 0 13 65 74 84 97 100 100 97 87
94 94 94 94 94 90 97 100 97 94 87 81 87 87 26 13 16 42 45 97 97 97 74 74 90 68 26 6 0 3 0 3 0 3 23 74 77 90 94 97 100 97 84
90 87 94 90 90 90 87 87 84 71 61 52 45 39 0 0 3 3 23 52 48 45 29 0 16 19 13 0 0 0 0 0 0 0 10 74 77 87 94 97 97 90 81
84 81 81 84 74 81 81 77 74 52 45 19 19 19 0 0 0 3 10 16 19 6 3 0 0 3 6 0 3 0 0 0 0 0 3 71 77 74 87 87 84 84 74
81 84 84 81 74 74 71 58 52 39 29 10 26 32 13 6 3 6 6 6 3 0 0 0 3 3 0 0 0 0 0 0 0 0 0 35 68 68 77 90 84 84 68
74 77 84 81 68 65 74 58 52 45 35 29 35 48 45 32 23 16 19 19 10 0 0 0 0 0 0 3 0 0 0 0 0 0 0 16 26 45 71 77 81 77 65
71 68 81 84 84 74 71 68 74 71 61 48 52 58 74 55 42 23 19 16 3 3 0 0 0 0 3 0 0 0 0 0 0 0 0 0 6 6 32 61 65 61 55
58 65 74 77 87 81 74 74 77 77 65 58 58 68 71 61 55 42 29 19 3 0 0 0 0 0 0 0 0 0 0 0 0 0 0 0 0 0 0 3 32 35 42
71 68 81 81 84 84 81 71 68 61 58 55 55 52 55 55 48 35 23 26 13 3 3 0 0 0 0 0 0 0 0 0 0 0 0 0 0 0 0 0 0 3 13
61 68 71 81 81 77 77 71 61 58 52 42 29 32 32 26 29 26 29 10 6 3 3 0 0 0 0 0 0 0 0 0 0 0 0 0 0 0 0 0 0 0 0
39 48 61 74 74 71 68 55 45 45 32 23 23 16 19 16 13 16 13 6 3 3 3 0 0 0 0 0 0 0 0 0 0 0 0 0 0 0 0 0 0 0 0
29 35 45 42 52 61 55 39 45 35 26 19 13 13 6 6 6 10 10 3 3 3 3 0 0 0 0 0 0 0 0 0 0 0 0 0 0 0 0 0 0 0 0
19 19 23 23 32 45 48 45 39 32 26 13 10 3 3 3 3 3 3 0 3 3 3 3 0 0 0 0 0 0 0 0 0 0 0 0 0 0 0 0 0 0 0
3 10 19 19 23 23 26 35 29 26 6 6 3 3 3 3 3 3 3 0 0 0 0 0 0 0 0 0 0 0 0 0 0 0 0 0 0 0 0 0 0 0 0
3 3 6 16 16 19 16 16 13 6 6 6 3 3 3 3 3 0 0 0 0 0 0 0 0 0 0 0 0 0 0 0 0 0 0 0 0 0 0 0 0 0 0

GEFSSE_con_cape1000_072.txt.gz
Probability
81 100 100 100 100 100 100 100 100 100 100 100 100 100 100 100 100 100 100 100 100 100 100 100 100 100 100 100 100 100 100 100 100 100 100 100 100 100 100 100 100 100 100
84 100 100 100 100 100 100 100 100 100 100 100 100 100 100 100 100 100 100 100 100 100 100 100 100 100 100 100 100 100 100 100 100 100 100 100 100 100 100 100 100 97 100
94 100 100 100 100 100 100 100 100 100 100 100 100 100 100 100 100 100 100 100 100 100 100 100 100 100 100 100 100 100 100 100 100 100 100 100 100 100 100 100 100 100 100
97 100 100 100 100 100 100 100 100 100 100 100 100 100 100 100 100 100 100 100 100 100 100 100 100 100 100 100 100 100 100 100 100 100 100 100 100 100 100 100 100 100 100
100 100 100 100 100 100 100 100 100 100 100 100 100 100 100 100 100 100 100 100 100 100 100 100 100 100 100 100 100 100 100 100 100 100 97 97 100 100 100 100 100 100 100
100 100 100 100 100 100 100 100 100 100 100 100 100 100 100 100 100 100 100 100 100 100 100 97 97 97 97 97 97 97 97 97 87 87 97 97 97 100 100 100 100 100 100
94 94 100 100 100 100 100 100 100 100 100 100 100 100 100 100 100 100 100 100 97 97 97 97 97 97 94 94 94 94 97 94 42 77 84 90 97 100 100 100 100 100 97
90 100 100 100 100 100 100 100 100 100 100 100 100 100 100 100 100 100 100 97 94 87 87 84 87 84 84 84 84 87 87 77 58 58 71 87 90 97 97 100 100 100 100
94 100 100 100 100 100 100 100 100 100 100 100 100 100 100 100 100 100 100 97 90 90 81 77 74 74 71 65 58 71 71 71 19 52 65 74 87 97 97 94 97 100 100
97 100 100 100 100 100 100 100 100 100 100 100 100 100 100 100 100 97 100 97 90 81 74 68 65 55 58 45 39 45 52 42 3 39 61 65 84 94 94 94 97 100 97
97 100 100 100 100 100 100 100 100 100 100 100 100 100 100 97 97 97 97 94 90 90 77 74 65 58 55 52 42 55 39 3 0 16 35 65 81 94 94 94 100 97 97
94 97 100 100 97 100 100 100 100 100 100 100 100 100 94 87 87 94 90 94 94 94 90 84 81 65 55 10 3 10 10 3 0 3 16 55 87 94 97 97 100 94 90
87 97 100 100 97 97 100 100 100 100 100 100 97 97 65 45 55 68 48 77 87 90 71 68 61 52 29 10 6 3 0 0 0 0 10 65 90 94 97 94 94 94 87
90 90 100 100 100 97 97 100 100 100 90 84 84 71 39 23 19 16 10 35 65 55 48 23 19 13 3 0 0 0 0 0 0 0 3 45 81 87 94 94 90 87 84
87 90 90 100 100 97 94 100 94 87 84 77 61 52 26 13 6 6 0 0 23 29 19 6 0 0 3 3 0 0 3 0 0 0 0 26 68 81 84 87 81 81 84
81 87 94 100 100 94 90 87 81 74 68 58 42 42 19 6 3 0 0 0 6 13 10 3 0 0 0 0 0 0 0 0 0 0 0 10 39 65 65 65 74 68 55
77 84 87 87 87 81 74 71 71 68 55 48 42 32 16 6 0 0 0 0 3 3 3 3 0 0 0 0 0 3 0 0 0 0 0 0 0 32 42 45 52 58 58
77 74 84 87 68 58 68 61 55 45 35 32 13 13 16 6 0 0 0 0 0 3 3 0 0 0 0 0 0 0 0 0 0 0 0 0 0 3 23 39 39 39 39
68 74 71 68 61 55 55 48 39 35 23 19 10 10 13 16 13 6 0 0 0 0 0 0 0 0 0 0 0 0 0 0 0 0 0 0 0 3 3 6 16 10 13
58 58 61 61 55 48 55 32 26 19 16 10 6 6 13 16 16 6 0 0 0 0 0 0 0 0 0 0 0 0 0 0 0 0 0 0 0 0 0 0 0 0 3
42 42 52 42 42 39 39 23 29 19 10 3 3 0 0 3 10 3 3 0 0 0 0 0 0 0 0 0 0 0 0 0 0 0 0 0 0 0 0 0 0 0 0
39 32 39 35 32 32 32 23 13 10 3 6 3 3 0 3 3 3 0 3 0 0 0 0 0 0 0 0 0 0 0 0 0 0 0 0 0 0 0 0 0 0 0
23 19 19 23 23 26 26 16 6 0 0 3 3 3 3 3 3 3 3 3 0 0 0 0 0 0 0 0 0 0 0 0 0 0 0 0 0 0 0 0 0 0 0
13 10 16 19 23 13 16 13 16 10 6 3 3 3 3 3 6 3 3 0 0 0 0 0 0 0 0 0 0 0 0 0 0 0 0 0 0 0 0 0 0 0 0
3 10 16 16 13 10 10 16 16 6 6 3 3 3 3 3 3 3 3 0 0 0 0 0 0 0 0 0 0 0 0 0 0 0 0 0 0 0 0 0 0 0 0
3 3 10 19 10 6 10 10 6 6 6 3 3 3 0 0 0 0 0 0 0 0 0 0 0 0 0 0 0 0 0 0 0 0 0 0 0 0 0 0 0 0 0

GEFSSE_con_cape1000_078.txt.gz
Probability
55 90 100 100 100 100 100 100 100 100 100 100 100 100 100 100 100 100 100 100 100 100 100 100 100 100 100 100 100 100 100 100 100 100 100 100 100 100 100 100 100 87 100
71 90 100 100 100 100 100 100 100 100 100 100 100 100 100 100 100 100 100 100 100 100 100 100 100 100 100 100 100 100 100 100 100 100 100 100 97 100 100 97 100 100 100
87 97 100 100 100 100 100 100 100 100 100 100 100 100 100 100 100 100 100 100 100 100 100 100 100 100 100 100 100 100 100 100 100 100 100 90 90 94 94 90 100 100 100
90 97 100 100 100 100 100 100 100 100 100 100 100 100 100 100 100 100 100 100 100 100 100 100 100 100 100 100 100 100 100 100 100 100 90 77 81 94 90 87 97 100 100
94 94 100 100 100 100 100 100 100 100 100 100 100 100 100 100 100 100 100 100 100 100 97 97 97 100 100 100 100 100 100 100 100 97 84 87 97 100 97 97 94 94 97
87 90 100 100 100 100 100 100 100 100 100 100 100 100 100 100 100 100 100 100 100 100 100 94 97 97 97 97 97 97 97 97 97 68 74 84 94 97 97 97 94 94 94
87 94 100 100 100 100 100 100 100 100 100 100 100 100 100 100 100 100 100 100 100 97 97 97 94 94 97 97 97 97 97 97 94 55 77 81 97 97 94 97 97 97 97
94 97 100 100 100 100 100 100 100 100 100 100 100 100 100 100 100 100 100 100 97 97 97 94 87 81 81 84 87 87 90 87 77 45 65 61 97 97 94 94 94 97 97
90 97 100 100 100 100 100 100 100 100 100 100 100 100 100 100 100 100 97 97 90 87 84 84 81 81 74 68 65 68 68 74 81 77 48 81 94 94 90 94 94 94 94
90 100 100 100 100 100 100 100 100 100 100 100 100 100 100 100 97 97 97 94 90 87 84 84 81 77 61 52 45 42 55 52 39 48 61 84 94 90 90 94 94 94 94
94 100 100 100 100 100 100 100 100 100 100 100 100 100 100 94 77 90 81 94 84 81 81 71 68 65 55 42 32 26 26 48 32 32 55 71 77 77 90 94 94 90 94
94 97 97 97 100 100 94 100 100 100 100 100 97 97 97 90 84 52 81 97 90 84 81 68 58 45 35 35 35 16 16 35 23 35 55 68 68 81 90 90 87 90 94
94 94 87 94 97 100 100 100 100 100 97 97 100 100 97 97 94 65 87 90 97 90 77 90 61 39 16 23 23 13 13 13 10 6 48 81 81 81 87 87 84 81 81
90 90 87 87 97 100 97 90 90 97 100 97 100 97 100 97 94 77 90 65 87 84 74 52 52 29 32 32 23 13 16 23 26 32 68 77 77 81 84 84 84 77 74
94 90 90 90 94 97 100 100 97 97 100 97 100 100 100 100 100 90 97 97 74 74 84 84 55 55 48 32 29 29 23 26 32 39 45 55 68 74 74 71 74 71 65
97 97 97 90 94 94 97 97 97 97 97 94 97 97 94 100 100 100 100 100 90 84 74 77 71 77 77 71 48 42 39 29 35 45 45 65 58 58 55 52 61 48 42
100 100 97 90 90 94 94 97 97 94 100 97 94 94 97 100 100 100 100 100 100 94 94 94 87 84 84 71 65 55 58 55 45 48 52 68 48 32 26 29 35 39 39
97 94 87 84 84 87 94 90 90 90 94 94 87 94 97 100 100 100 97 97 97 97 97 97 94 84 90 74 68 68 58 58 52 42 35 35 42 26 13 10 13 23 23
90 90 84 84 87 84 81 84 84 90 90 84 84 84 87 94 94 97 97 97 97 94 90 84 81 74 71 61 52 52 35 29 26 19 16 19 16 13 6 10 3 3 3
71 84 84 81 84 84 77 81 84 84 87 81 74 81 84 77 81 84 84 90 84 81 81 84 84 74 61 58 23 16 29 19 19 16 16 10 13 10 6 3 6 3 3
71 68 74 77 77 77 77 84 84 77 58 55 52 52 58 61 68 71 68 77 71 74 74 61 55 48 35 32 39 29 16 13 13 13 6 6 3 3 3 3 6 6 6
58 68 71 74 65 65 68 77 74 58 52 45 42 35 39 42 48 45 48 48 48 48 39 39 39 29 26 23 26 32 13 13 10 3 6 3 3 3 3 0 0 0 0
55 55 58 61 61 68 61 61 52 42 39 29 29 26 23 19 26 29 26 29 29 29 29 23 32 23 19 16 16 16 16 13 10 3 3 3 3 3 0 0 0 0 0
42 45 58 58 61 61 58 48 39 35 29 26 13 10 6 10 6 6 6 10 16 10 16 10 10 13 19 13 10 6 3 3 3 3 0 0 0 0 0 0 0 0 0
39 35 39 48 55 55 61 52 45 32 26 13 10 6 6 6 6 6 6 6 6 6 6 6 6 6 6 10 6 0 0 0 0 3 0 0 0 0 0 0 0 0 0
32 32 35 39 35 45 48 52 42 26 13 10 6 6 6 6 6 6 6 6 6 6 6 6 6 6 3 3 3 0 0 0 0 0 0 0 0 0 0 0 0 0 0

GEFSSE_con_cape1000_084.txt.gz
Probability
94 100 100 100 100 100 100 100 100 100 100 100 100 100 100 100 100 100 100 100 100 100 100 100 100 100 100 100 100 100 100 100 100 100 100 100 100 100 100 100 100 84 97
100 100 100 100 100 100 100 100 100 100 100 100 100 100 100 100 100 100 100 100 100 100 100 100 100 100 100 100 100 97 97 100 100 100 100 97 97 97 100 100 100 94 97
100 100 100 100 100 100 100 100 100 100 100 100 100 100 100 100 100 100 100 100 100 100 100 100 100 100 100 100 100 97 97 97 97 94 100 87 94 90 90 100 100 100 90
100 100 100 100 100 100 100 100 100 100 100 100 100 100 100 100 100 100 100 100 97 97 100 100 100 100 100 100 97 97 97 97 97 97 90 84 74 77 84 90 90 84 81
100 100 100 100 100 100 100 100 100 100 100 100 100 100 100 100 100 100 100 97 97 97 100 100 100 100 100 100 100 97 100 100 100 97 90 90 87 84 81 81 81 81 84
100 100 100 100 100 100 100 100 100 100 100 100 100 100 100 100 100 100 100 97 97 97 94 97 97 97 97 97 94 90 90 94 94 90 90 90 90 90 84 84 87 90 84
100 100 100 100 100 100 100 100 100 100 100 100 100 100 100 100 100 100 100 100 97 94 97 94 94 94 97 94 94 87 87 90 94 87 84 87 94 100 97 87 84 87 90
100 100 100 100 100 100 100 100 100 100 100 100 100 100 100 100 100 100 100 100 97 97 97 94 87 84 87 84 81 81 84 94 77 71 84 81 100 100 97 94 90 87 84
100 100 100 100 100 100 100 100 100 100 100 100 100 100 100 100 100 100 100 97 97 94 94 87 84 77 77 74 68 58 68 90 71 77 65 84 90 90 87 90 90 87 84
94 100 100 100 100 100 100 100 100 100 100 100 100 100 100 100 100 100 97 97 90 90 87 81 77 81 77 61 45 42 61 71 35 45 65 87 97 94 90 90 87 90 87
97 100 100 100 97 97 97 100 100 100 100 100 100 100 100 100 100 100 97 94 87 87 84 84 74 81 71 71 74 68 55 13 10 35 68 94 94 90 90 90 90 90 90
100 97 94 90 90 94 97 100 100 100 100 100 100 100 100 100 97 94 94 100 90 94 90 94 94 87 58 48 61 77 19 13 16 29 81 100 90 90 87 90 84 81 74
100 97 87 81 90 84 84 97 97 90 100 100 97 100 97 100 94 87 90 94 97 94 77 94 87 55 35 45 65 32 29 16 23 35 81 100 97 87 74 87 87 81 71
100 100 94 87 84 90 90 90 90 90 100 87 97 94 94 97 94 90 94 81 87 77 87 81 65 48 61 61 52 45 39 26 29 45 71 84 84 81 71 68 84 77 68
84 90 90 90 90 90 90 84 84 90 84 77 87 87 87 94 90 94 90 81 84 74 90 94 77 74 61 61 48 35 32 35 42 39 58 77 74 74 77 61 65 61 58
87 94 90 84 84 84 84 81 84 81 84 84 84 87 84 81 90 84 90 90 94 94 84 97 94 100 94 77 68 68 52 42 52 58 42 55 65 55 55 48 42 42 39
84 87 90 81 81 81 84 81 74 84 81 87 77 74 74 68 74 81 81 84 87 97 100 100 97 94 94 81 87 77 65 61 58 61 48 32 29 26 29 29 26 23 23
74 84 77 81 87 87 84 87 84 84 84 81 77 71 61 61 61 71 77 81 87 90 94 90 87 84 84 81 77 68 58 68 58 45 35 29 19 16 16 16 16 13 13
65 74 77 74 77 77 84 77 84 84 87 77 74 61 61 58 61 74 74 74 77 81 77 74 81 77 77 74 52 48 48 35 39 19 23 16 16 16 10 6 6 10 10
65 71 71 74 77 71 81 84 84 81 81 71 61 61 61 61 65 71 71 71 68 71 68 71 71 71 61 48 29 19 26 23 19 16 13 10 10 6 6 6 3 3 3
71 65 68 74 71 71 71 77 74 71 48 55 52 55 55 58 52 55 61 61 65 61 58 45 48 45 45 45 35 16 19 16 10 10 6 6 6 6 6 6 3 3 0
58 61 65 71 65 58 58 65 68 48 48 35 32 35 42 45 45 45 45 48 52 48 58 52 52 45 29 23 23 3 0 6 3 3 6 6 3 3 0 0 0 0 0
48 55 55 52 55 55 48 45 45 42 32 26 26 29 29 29 29 32 26 26 29 39 35 42 29 26 13 13 13 3 0 0 0 0 0 0 0 0 0 0 0 0 0
48 45 42 52 55 55 45 45 42 35 23 19 23 19 16 16 16 16 10 10 13 13 19 10 16 16 10 10 10 6 0 0 0 0 0 0 0 0 0 0 0 0 0
39 42 39 42 48 48 61 52 39 26 16 13 10 10 10 13 13 13 6 6 6 6 6 10 13 10 10 10 6 3 0 0 0 0 0 0 0 0 0 0 0 0 0
39 39 35 35 32 32 42 39 29 19 10 6 3 3 6 6 10 6 6 6 6 6 6 6 6 3 6 3 3 3 0 0 0 0 0 0 0 0 0 0 0 0 0

GEFSSE_con_cape1000_090.txt.gz
Probability
97 100 100 100 100 100 100 100 100 100 100 100 100 100 100 100 100 100 100 100 100 100 100 100 100 100 100 100 100 100 100 100 100 100 100 100 100 100 100 100 97 94 100
90 100 100 100 100 100 100 100 100 100 100 100 100 100 100 100 100 100 100 100 100 100 100 100 100 100 100 100 100 100 100 100 100 100 100 100 100 100 100 100 90 94 100
97 100 100 100 100 100 100 100 100 100 100 100 100 100 100 100 100 100 100 100 100 100 100 100 100 100 100 100 100 100 100 100 100 100 100 84 100 100 100 100 100 100 100
97 100 100 100 100 100 100 100 100 100 100 100 100 100 100 100 100 100 100 100 100 100 100 100 100 100 100 100 100 100 97 97 97 90 48 55 87 100 100 100 100 97 97
100 100 100 100 100 100 100 100 100 100 100 100 100 100 100 100 100 100 100 100 100 100 100 100 100 100 100 97 100 100 100 97 94 81 42 29 71 97 100 94 94 94 90
100 100 100 100 100 100 100 100 100 100 100 100 100 100 100 100 100 100 100 100 100 100 100 100 100 100 100 97 97 94 94 94 87 55 39 32 58 97 94 90 84 87 84
100 100 100 100 100 100 100 100 100 100 100 100 100 100 100 100 100 100 100 100 100 100 100 97 97 97 97 94 90 90 97 97 61 19 26 19 45 97 94 94 94 90 87
100 100 100 100 100 100 100 100 100 100 100 100 100 100 100 100 100 100 100 100 100 97 97 97 97 97 94 94 87 81 94 90 48 16 32 19 65 97 94 90 90 94 87
100 100 100 100 100 100 100 100 100 100 100 100 100 100 100 100 100 100 100 100 97 97 94 94 90 94 94 84 74 61 71 77 6 6 23 13 81 97 97 94 94 90 90
100 100 100 100 100 100 100 100 100 100 100 100 100 100 100 100 100 100 100 100 97 97 94 94 94 94 90 77 65 68 74 35 0 3 16 19 90 97 97 97 94 90 87
97 100 100 100 100 100 100 100 100 100 100 100 100 100 100 100 100 100 97 97 97 94 94 94 90 94 90 90 87 74 61 3 0 0 6 61 90 97 87 90 90 94 87
94 97 97 97 100 100 100 97 97 97 97 97 100 100 100 97 90 90 94 97 97 97 90 94 94 90 84 32 32 68 16 0 0 0 3 94 100 94 90 90 87 87 81
84 90 90 90 90 90 90 94 94 94 97 94 97 97 90 77 81 74 77 84 84 81 84 84 94 74 39 6 6 6 3 0 0 0 10 94 87 87 81 94 87 84 81
81 71 65 71 74 77 84 87 84 87 87 84 87 90 77 61 61 42 58 68 65 52 45 48 42 29 13 6 0 0 0 0 0 0 19 84 84 87 81 81 74 68 65
71 65 58 55 58 58 58 74 77 77 81 74 77 84 65 48 45 32 39 39 39 26 23 16 10 13 6 0 0 0 0 0 3 6 26 71 74 74 65 58 55 61 52
58 55 45 45 45 42 52 61 55 58 68 58 65 65 55 29 26 26 29 23 23 16 13 6 6 0 0 0 0 0 0 0 0 0 3 19 61 61 61 52 42 35 39
61 45 35 35 35 39 52 48 48 42 42 52 48 55 35 23 23 23 26 26 6 6 6 6 3 0 0 0 0 0 0 0 0 0 3 10 13 26 26 19 16 16 16
48 32 39 29 29 35 48 45 26 29 29 29 26 35 35 23 13 13 16 13 6 3 3 3 0 0 0 0 0 0 0 0 0 0 0 0 0 0 10 13 10 10 13
35 29 26 26 16 29 32 32 13 19 19 19 23 26 32 23 16 13 10 3 3 3 3 3 0 0 0 0 0 0 0 0 0 0 0 0 0 0 0 6 3 3 3
26 26 26 19 19 26 35 23 13 16 23 19 19 16 26 29 26 13 6 13 3 3 0 0 0 0 0 0 0 0 0 0 0 0 0 0 0 0 0 0 3 3 3
19 19 19 16 19 16 19 16 16 16 16 10 3 6 13 23 26 16 10 6 3 3 0 0 0 0 0 0 0 0 0 0 0 0 0 0 0 0 0 0 0 0 0
13 16 16 19 16 19 19 13 13 10 6 0 3 6 3 3 6 19 10 6 3 0 0 0 0 0 0 0 0 0 0 0 0 0 0 0 0 0 0 0 0 0 0
3 10 13 19 19 19 19 10 6 3 3 3 0 6 6 3 6 6 6 3 0 0 0 0 0 0 0 0 0 0 0 0 0 0 0 0 0 0 0 0 0 0 0
6 6 10 10 13 16 16 10 6 3 3 3 0 0 0 0 3 0 6 3 0 0 0 0 0 0 0 0 0 0 0 0 0 0 0 0 0 0 0 0 0 0 0
6 6 6 10 6 10 13 10 3 3 3 0 0 0 0 3 3 3 3 3 0 0 0 0 0 0 0 0 0 0 0 0 0 0 0 0 0 0 0 0 0 0 0
10 6 3 6 3 3 3 0 3 3 0 0 0 3 3 3 3 3 3 3 3 3 0 0 0 0 0 0 0 0 0 0 0 0 0 0 0 0 0 0 0 0 0

GEFSSE_con_cape1000_096.txt.gz
Probability
77 100 100 100 100 100 100 100 100 100 100 100 100 100 100 100 100 100 100 100 100 100 100 100 100 100 100 100 100 100 100 100 100 100 100 100 100 100 100 97 90 77 97
90 100 100 100 100 100 100 100 100 100 100 100 100 100 100 100 100 100 100 100 100 100 100 100 100 100 100 100 100 100 100 100 100 100 100 100 100 100 97 87 87 90 97
100 100 100 100 100 100 100 100 100 100 100 100 100 100 100 100 100 100 100 100 100 100 100 100 100 100 100 100 100 100 100 100 100 100 100 97 100 100 94 90 97 100 100
100 100 100 100 100 100 100 100 100 100 100 100 100 100 100 100 100 100 100 100 100 100 100 100 100 100 100 100 100 100 100 100 100 100 87 97 94 97 94 94 94 94 94
100 100 100 100 100 100 100 100 100 100 100 100 100 100 100 100 100 100 100 100 100 100 100 100 100 100 100 100 100 100 100 100 100 74 58 84 90 97 97 94 97 90 90
100 100 100 100 100 100 100 100 100 100 100 100 100 100 100 100 100 100 100 100 100 100 100 100 100 100 100 94 97 97 97 94 84 39 48 65 84 94 94 90 81 77 81
100 100 100 100 100 100 100 100 100 100 100 100 100 100 100 100 100 100 100 100 100 100 100 100 100 100 94 94 97 97 97 94 45 35 32 55 77 97 90 90 84 81 68
100 100 100 100 100 100 100 100 100 100 100 100 100 100 100 100 100 100 100 100 100 100 100 100 97 94 94 94 97 97 100 87 48 32 45 55 71 97 94 94 87 84 71
100 100 100 100 100 100 100 100 100 100 100 100 100 100 100 100 100 100 100 100 100 100 97 97 94 94 94 94 90 90 97 77 10 26 26 35 74 97 97 97 94 84 81
100 97 97 97 97 97 100 100 100 100 100 100 100 100 100 100 100 100 100 100 100 97 94 90 94 94 94 87 84 74 81 39 10 19 23 19 74 97 97 94 90 84 74
97 97 97 97 97 97 97 100 100 100 100 100 100 100 100 100 100 100 100 100 97 97 94 94 94 90 97 87 90 81 35 6 3 10 19 39 87 90 81 87 90 77 71
97 94 97 97 97 97 97 94 94 97 97 97 97 100 100 100 100 100 100 100 97 97 94 94 94 97 77 48 42 42 13 3 0 6 13 58 87 77 77 77 81 77 74
94 87 87 87 87 87 87 94 94 94 94 94 94 100 94 90 94 94 87 87 90 94 84 87 87 77 52 39 16 16 10 0 3 0 16 58 90 84 71 77 71 68 71
81 81 81 84 84 84 84 87 90 90 94 94 94 97 90 87 84 81 81 81 77 74 58 61 58 39 29 23 6 3 3 0 3 10 19 58 84 84 65 61 58 55 58
77 74 74 74 81 84 81 81 77 81 84 90 87 94 87 84 81 71 65 65 65 52 48 45 35 29 29 13 6 0 3 6 6 10 19 55 71 65 61 55 42 42 35
68 71 71 68 65 65 61 68 71 68 71 71 74 84 81 71 61 61 48 55 45 42 29 26 23 23 19 6 3 0 0 0 0 0 13 35 48 52 58 45 39 29 26
65 71 68 65 55 58 58 58 55 52 61 65 58 61 58 55 48 42 39 32 35 32 19 23 19 13 6 0 0 0 0 0 0 0 0 3 26 29 35 29 29 19 19
42 52 52 55 52 48 48 55 45 45 42 45 45 48 52 52 35 23 19 23 26 19 19 16 13 6 0 0 0 0 0 0 0 0 3 3 6 6 16 16 10 10 13
35 42 42 42 45 45 35 32 32 29 32 29 29 32 42 39 32 19 16 16 10 10 13 13 6 3 0 0 0 0 0 0 0 0 0 0 0 0 0 6 6 6 6
35 29 32 29 26 19 13 16 19 19 16 13 13 16 13 19 26 23 19 10 6 3 3 3 3 3 0 0 0 0 0 0 0 0 0 0 0 0 0 0 3 3 3
23 19 19 19 16 13 6 16 19 16 19 16 10 6 3 6 10 10 6 0 3 3 3 3 3 3 0 0 0 0 0 0 0 0 0 0 0 0 0 0 0 0 0
13 19 10 13 13 10 10 6 6 3 3 10 6 0 0 0 3 3 0 0 0 3 3 3 3 3 0 0 0 0 0 0 0 0 0 0 0 0 0 0 0 0 0
10 6 10 6 10 10 3 6 3 0 0 6 0 3 0 0 0 0 0 0 0 0 3 3 0 0 0 0 0 0 0 0 0 0 0 0 0 0 0 0 0 0 0
6 6 6 3 3 10 3 6 6 6 6 3 3 0 0 0 0 0 0 0 0 0 0 0 0 0 0 0 0 0 0 0 0 0 0 0 0 0 0 0 0 0 0
3 3 6 6 3 3 3 6 6 6 3 3 0 0 0 0 0 0 0 0 0 0 0 0 0 0 0 0 0 0 0 0 0 0 0 0 0 0 0 0 0 0 0
3 6 3 3 3 3 0 3 6 6 0 0 0 0 0 0 0 0 0 0 0 0 0 0 0 0 0 0 0 0 0 0 0 0 0 0 0 0 0 0 0 0 0

GEFSSE_con_cape1000_102.txt.gz
Probability
84 87 100 100 100 100 100 100 100 100 100 100 100 100 100 100 100 100 100 100 100 100 100 100 100 100 100 100 100 100 100 100 100 100 97 97 97 100 100 87 74 58 84
94 94 100 100 100 100 100 100 100 100 100 100 100 100 100 100 100 100 100 100 100 100 100 100 100 100 100 100 100 100 100 100 100 97 97 87 87 100 90 61 81 77 94
97 97 100 100 100 100 100 100 100 100 100 100 100 100 100 100 100 100 100 100 100 100 100 100 100 100 100 100 100 100 100 100 100 100 94 61 65 77 71 74 90 90 87
94 90 87 100 100 100 100 100 100 100 100 100 100 100 100 100 100 100 100 100 100 100 100 100 100 100 100 100 100 100 100 100 100 100 74 32 39 71 74 77 77 77 74
90 77 100 100 100 100 100 100 100 100 100 100 100 100 100 100 100 100 100 100 100 100 100 100 100 100 100 100 100 100 100 100 97 90 23 39 68 87 84 81 68 77 71
87 87 100 100 100 100 100 100 100 100 100 100 100 100 100 100 100 100 100 100 100 100 100 100 100 100 100 100 100 100 100 100 81 19 23 42 68 87 77 81 77 68 68
81 81 100 100 100 100 100 100 100 100 100 100 100 100 100 100 100 100 100 100 100 100 100 100 100 97 94 94 97 97 97 94 55 10 19 26 71 94 81 74 74 77 58
90 94 100 100 100 100 100 100 100 100 100 100 100 100 100 100 100 100 100 100 100 100 100 100 97 94 94 97 94 97 97 94 35 10 29 32 94 97 94 81 74 61 58
90 94 100 97 100 100 100 100 100 100 100 100 100 100 100 100 100 100 100 100 100 100 100 100 94 94 90 94 94 97 90 87 74 42 29 45 77 94 90 84 77 61 55
97 94 100 100 97 100 100 100 100 100 100 100 100 100 100 100 100 100 100 100 100 100 97 94 94 94 87 90 87 84 84 68 52 42 39 61 87 94 87 90 71 68 61
100 100 100 100 100 100 97 100 100 100 100 100 100 100 100 100 100 100 100 100 100 97 94 94 94 94 84 90 87 74 77 68 39 45 52 68 81 77 84 71 71 65 68
100 100 100 97 100 100 100 100 100 100 100 100 100 100 100 100 100 100 100 100 100 94 94 90 90 84 81 87 74 65 71 61 45 55 65 84 74 81 74 68 68 65 68
100 97 94 97 97 97 97 97 97 97 97 100 100 100 100 100 100 100 100 100 100 94 90 90 87 71 61 65 71 45 52 26 39 45 58 84 81 81 74 71 65 61 52
97 94 90 97 97 97 97 94 97 97 94 94 94 94 94 97 94 94 97 94 94 94 90 90 94 74 61 55 39 39 32 32 39 55 84 84 87 84 71 58 58 55 52
77 84 87 87 87 87 97 97 94 90 90 90 90 90 90 90 87 94 94 97 84 84 90 97 87 87 77 68 48 42 42 29 32 48 71 74 77 84 61 55 61 48 45
77 77 81 81 84 87 87 90 90 90 90 90 90 90 87 84 87 90 94 97 87 81 84 84 84 87 84 74 68 48 39 26 55 58 58 61 58 58 55 48 45 32 32
74 77 77 77 81 84 77 81 81 84 87 87 84 81 84 84 84 90 87 90 94 90 90 90 90 87 81 74 71 61 52 42 42 52 55 55 55 45 52 45 45 35 26
65 68 68 74 71 74 71 77 74 77 81 84 81 77 84 87 84 87 87 87 90 87 94 94 90 84 71 71 65 61 55 61 55 58 42 58 55 35 23 32 32 29 23
65 68 65 61 65 68 71 71 74 77 77 81 77 74 77 81 81 84 84 87 84 84 90 84 87 81 74 58 52 45 39 35 35 23 26 26 32 39 23 19 19 13 13
45 48 61 65 61 68 68 71 74 74 77 77 81 77 71 74 74 74 65 71 68 68 71 68 65 61 52 42 16 13 23 19 16 16 16 16 19 16 13 10 6 6 10
42 42 45 48 58 58 68 68 68 68 74 74 77 68 68 68 71 68 55 65 58 58 65 61 52 45 39 35 23 16 6 0 0 10 10 10 6 6 6 3 3 6 10
35 39 39 39 42 48 58 61 61 61 61 74 65 61 55 52 55 48 61 58 55 58 52 52 42 39 35 29 19 13 6 6 3 0 6 10 6 3 3 3 3 6 6
39 35 35 32 42 42 45 52 52 52 58 61 58 42 42 39 39 45 42 45 45 39 39 32 32 32 23 23 19 13 6 6 3 3 3 3 3 6 6 3 3 6 6
19 23 26 26 26 32 32 39 45 48 52 52 48 42 42 26 29 29 35 35 35 26 32 23 26 26 26 10 13 16 10 10 6 0 0 0 0 0 0 0 0 0 0
16 19 19 29 29 32 35 35 39 42 42 32 42 42 32 19 16 13 19 23 26 26 23 19 23 23 23 16 10 10 10 6 0 0 0 0 0 0 0 0 0 0 0
16 16 16 19 23 26 35 39 42 42 35 29 32 35 29 16 13 13 10 10 16 13 13 16 16 16 16 16 13 3 10 6 6 6 6 0 0 0 0 0 0 0 0

GEFSSE_con_cape1000_108.txt.gz
Probability
87 100 100 100 100 100 100 100 100 100 100 100 100 100 100 100 100 100 100 100 100 100 100 100 100 100 100 100 100 100 100 100 100 97 94 97 97 87 87 90 90 74 94
94 100 100 100 100 100 100 100 100 100 100 100 100 100 100 100 100 100 100 100 100 100 100 100 100 100 100 100 100 100 100 100 100 100 100 97 94 81 94 94 90 81 94
100 100 100 100 100 100 100 100 100 100 100 100 100 100 100 100 100 100 100 100 100 100 100 100 100 100 100 100 100 100 100 100 97 97 97 55 65 77 94 94 94 90 94
90 100 100 100 100 100 100 100 100 100 100 100 100 100 100 100 100 100 100 100 100 100 100 100 100 100 100 100 100 100 97 94 94 100 94 39 32 71 87 94 90 94 94
87 100 100 100 100 100 100 100 100 100 100 100 100 100 100 100 100 100 100 100 100 100 100 100 100 100 100 100 100 97 94 84 87 90 84 65 58 81 77 71 68 74 77
87 100 100 100 100 100 100 100 100 100 100 100 100 100 100 100 100 100 100 100 100 100 100 100 100 100 100 100 97 94 94 97 94 87 84 87 68 97 74 61 55 55 55
90 100 100 100 100 100 100 100 100 100 100 100 100 100 100 100 100 100 100 100 100 100 100 100 100 97 97 94 94 97 94 90 97 81 71 77 81 97 90 65 58 58 45
90 100 100 100 100 100 100 100 100 100 100 100 100 100 100 100 100 100 100 100 100 100 100 97 97 94 94 94 94 90 94 97 94 61 68 58 90 100 81 77 61 48 52
87 97 100 100 100 100 100 100 100 100 100 100 100 100 100 100 100 100 100 100 100 100 100 97 94 94 94 94 94 90 90 100 90 81 71 68 94 94 74 61 58 48 48
81 84 94 94 97 100 100 100 100 100 100 100 100 100 100 100 100 100 100 100 100 100 100 97 94 94 90 94 87 87 87 94 68 58 58 74 100 94 81 65 61 42 39
87 81 84 94 97 97 97 100 100 100 100 100 100 100 100 100 100 100 100 100 100 100 97 97 94 90 87 87 87 94 90 65 29 48 61 97 100 97 87 77 68 55 39
97 90 94 94 90 81 90 100 100 100 100 97 97 97 97 94 94 97 100 100 100 100 97 97 94 90 81 87 87 94 65 45 23 45 58 94 87 84 87 74 68 61 48
94 94 97 100 97 90 97 100 97 97 97 97 97 97 94 94 94 90 94 97 100 97 97 97 94 84 65 84 87 68 52 29 35 48 58 94 94 84 81 81 71 65 58
84 84 94 100 97 97 97 97 97 94 94 87 87 90 90 87 87 87 87 90 94 97 100 97 90 81 77 71 81 71 52 52 42 58 71 87 87 87 84 77 71 58 55
81 90 94 90 94 100 100 97 94 94 87 87 87 84 84 84 87 87 84 81 81 84 77 87 90 87 87 71 68 71 55 45 48 48 55 81 87 84 74 74 61 61 52
77 81 84 87 90 94 90 90 94 90 90 84 81 81 81 77 77 84 81 84 74 81 81 81 74 74 84 81 77 77 71 55 68 61 48 68 71 71 71 58 52 52 45
68 71 81 87 84 87 87 84 84 87 87 84 81 74 74 77 77 84 84 74 74 81 81 74 71 71 74 74 65 68 74 68 68 61 48 42 45 58 68 61 55 52 42
65 68 68 74 77 77 84 81 81 87 87 84 84 74 74 77 77 84 84 84 84 84 81 81 71 61 58 61 58 58 55 48 52 52 45 35 35 29 39 45 45 45 39
55 65 68 68 68 74 74 81 81 87 87 87 81 77 77 81 77 84 77 87 87 87 87 81 74 71 52 48 52 52 42 39 35 39 35 32 35 23 16 19 29 35 32
55 58 61 61 68 68 77 77 77 84 81 81 77 77 81 77 77 81 81 77 84 84 84 81 71 65 45 45 29 19 29 29 39 32 32 26 26 19 10 10 16 16 16
48 48 55 55 58 65 77 74 74 68 71 77 77 81 77 71 74 74 71 68 71 77 74 61 58 48 39 32 29 23 13 16 19 23 19 19 16 10 10 6 6 3 0
45 45 55 58 61 61 65 68 74 74 74 71 71 71 68 65 65 65 68 68 71 65 58 55 45 35 29 23 19 3 3 3 13 10 13 13 6 6 6 6 3 6 3
35 35 42 55 52 55 61 68 71 74 71 71 68 65 65 61 61 61 58 58 61 65 55 45 42 29 29 19 13 10 3 3 3 6 6 6 6 3 3 6 3 3 0
32 32 35 42 42 45 52 55 65 65 65 65 65 58 55 52 52 48 48 52 52 52 45 42 39 29 23 16 13 10 3 6 3 0 3 3 3 0 0 0 0 3 3
29 29 39 39 35 35 35 48 55 55 52 55 58 55 52 52 52 52 48 48 48 48 42 39 32 26 19 13 13 10 3 3 0 0 0 0 0 0 0 0 0 0 0
16 19 32 35 35 35 35 32 39 39 42 42 52 48 48 52 52 48 35 42 35 32 29 35 29 23 23 16 10 6 6 0 0 0 0 0 0 0 0 0 0 0 0

GEFSSE_con_cape1000_114.txt.gz
Probability
97 100 100 100 100 100 100 100 100 100 100 100 100 100 100 100 100 100 100 100 100 100 100 100 100 100 100 100 100 100 100 100 97 94 97 97 100 100 100 100 94 90 97
97 100 100 100 100 100 100 100 100 100 100 100 100 100 100 100 100 100 100 100 100 100 100 100 100 100 100 100 100 100 100 97 97 97 94 94 97 97 94 94 87 81 97
100 100 100 100 100 100 100 100 100 100 100 100 100 100 100 100 100 100 100 100 100 100 100 100 100 100 100 100 100 100 100 100 100 100 94 87 97 97 97 94 94 94 94
100 100 100 100 100 100 100 100 100 100 100 100 100 100 100 100 100 100 100 100 100 100 100 100 100 100 100 100 100 100 100 100 100 94 42 58 87 97 97 100 94 97 94
100 100 100 100 100 100 100 100 100 100 100 100 100 100 100 100 100 100 100 100 100 100 100 100 100 100 100 100 100 100 100 100 100 65 23 29 68 100 100 97 87 87 87
100 100 100 100 100 100 100 100 100 100 100 100 100 100 100 100 100 100 100 100 100 100 100 100 100 100 100 100 100 100 100 100 87 42 35 35 58 100 97 90 77 74 71
97 97 100 100 100 100 100 100 100 100 100 100 100 100 100 100 100 100 100 100 100 100 100 100 100 100 100 100 100 100 100 100 48 32 19 35 55 100 97 87 77 68 68
97 97 97 100 100 100 100 100 100 100 100 100 100 100 100 100 100 100 100 100 100 100 100 97 97 100 100 97 100 100 97 87 58 39 26 35 87 100 90 84 77 68 58
97 97 97 97 100 100 100 100 100 100 100 100 100 100 100 100 100 100 100 100 100 100 97 97 97 97 97 94 90 97 97 97 35 29 29 32 94 100 84 77 74 71 65
87 94 94 94 97 97 100 100 100 100 100 100 100 100 100 100 100 97 97 100 100 100 97 97 97 97 90 90 87 87 94 71 26 16 23 42 97 94 94 81 84 77 68
74 81 87 90 94 97 97 100 100 100 100 97 97 97 97 97 97 97 97 97 97 97 97 97 97 97 90 84 90 90 68 35 13 10 19 77 100 94 90 87 81 74 74
74 74 77 77 90 94 100 97 97 97 90 90 90 90 87 87 81 94 94 97 94 94 90 87 90 90 84 68 81 74 52 29 13 6 16 97 100 97 94 87 77 74 71
48 61 58 71 71 84 90 87 87 87 90 87 90 87 77 65 61 61 71 84 84 87 81 84 87 74 65 42 26 23 29 19 3 0 19 90 97 87 84 81 77 81 74
26 32 42 48 55 55 74 77 77 84 84 81 81 81 68 65 61 58 68 65 61 55 45 52 52 42 29 23 16 16 19 13 3 3 6 81 87 84 81 81 77 77 74
29 29 39 26 35 48 58 65 68 68 65 65 68 61 61 61 55 58 52 52 48 35 39 35 32 26 19 19 19 13 13 10 6 0 10 71 71 74 84 81 81 74 65
26 29 29 29 35 42 35 48 61 61 61 61 58 58 61 52 48 58 52 39 42 32 32 32 32 23 23 16 13 13 13 6 10 6 6 32 68 68 71 74 71 65 58
16 23 26 32 32 32 42 48 55 58 48 48 52 52 61 52 48 45 48 35 29 26 26 23 26 19 16 16 16 10 13 10 3 3 3 6 26 65 68 61 61 61 61
13 13 16 29 35 32 35 42 42 52 48 45 42 45 52 48 55 42 35 32 29 29 23 16 19 13 16 13 13 10 6 6 3 3 3 3 3 6 39 45 45 55 48
13 16 10 29 29 35 39 45 52 48 42 45 45 48 48 45 45 39 35 29 29 16 16 19 16 13 6 10 10 6 0 0 3 3 3 3 0 3 3 19 35 35 42
10 10 23 29 32 35 39 45 52 52 45 48 48 48 48 45 39 32 32 29 26 23 13 13 16 10 10 6 10 6 0 0 3 3 3 3 3 3 6 6 13 16 29
19 16 16 23 23 32 32 35 39 48 52 45 45 48 45 39 39 32 32 29 26 23 16 10 10 10 3 0 0 0 0 0 0 0 0 0 0 0 0 6 6 6 10
16 19 23 23 19 23 32 35 42 48 42 45 42 45 42 39 39 29 29 29 26 16 13 10 10 6 6 0 0 0 0 0 0 0 0 0 0 0 0 3 0 0 0
6 13 16 13 19 23 29 32 39 35 26 29 29 32 35 35 35 32 26 23 26 13 10 6 6 6 6 6 0 0 0 0 0 0 0 0 0 0 0 0 0 0 0
6 3 13 16 16 19 19 19 29 32 26 23 19 16 29 32 29 26 19 16 16 6 10 10 6 6 6 6 0 0 0 0 0 0 0 0 0 0 0 0 0 0 0
10 13 10 16 13 13 13 19 19 19 16 10 10 10 13 16 19 16 16 19 13 6 6 3 0 6 6 6 0 0 0 0 0 0 0 0 0 0 0 0 0 0 0
0 3 3 6 10 13 16 13 13 16 13 13 16 13 10 6 3 3 10 10 10 6 6 0 0 0 0 0 0 0 0 0 0 0 0 0 0 0 0 0 0 0 0

GEFSSE_con_cape1000_120.txt.gz
Probability
74 97 100 100 100 100 100 100 100 100 100 100 100 100 100 100 100 100 100 100 100 100 100 100 100 100 100 100 100 100 100 100 97 97 97 97 97 100 100 100 94 87 97
87 100 100 100 100 100 100 100 100 100 100 100 100 100 100 100 100 100 100 100 100 100 100 100 100 100 100 100 100 100 100 97 97 97 97 94 94 97 97 94 94 94 97
90 100 100 100 100 100 100 100 100 100 100 100 100 100 100 100 100 100 100 100 100 100 100 100 100 100 100 100 100 100 100 97 97 97 94 87 94 94 94 94 94 97 97
94 100 100 100 100 100 100 100 100 100 100 100 100 100 100 100 100 100 100 100 100 100 100 100 100 100 100 100 100 100 100 100 100 94 87 90 87 94 94 94 90 90 94
94 97 100 100 100 100 100 100 100 100 100 100 100 100 100 100 100 100 100 100 100 100 100 100 100 100 100 100 100 100 100 100 100 87 71 84 90 97 94 90 90 94 94
97 97 100 100 100 100 100 100 100 100 100 100 100 100 100 100 100 100 100 100 100 100 100 100 100 100 100 100 97 100 100 100 87 55 71 84 90 97 97 90 90 94 94
97 100 100 100 100 100 100 100 100 100 100 100 100 100 100 100 100 100 100 100 100 100 100 100 100 100 100 100 100 100 100 97 48 52 55 71 87 97 90 87 84 81 71
94 97 100 100 100 100 100 100 100 100 100 100 100 100 100 100 100 100 100 100 100 100 100 100 100 100 100 100 100 100 100 97 61 45 52 61 87 97 90 94 84 87 74
87 97 97 100 100 100 100 100 100 100 100 100 100 100 100 100 100 100 100 100 100 100 97 100 100 100 100 94 97 97 100 94 39 55 45 58 90 97 87 87 87 81 71
81 81 87 94 94 97 97 100 100 100 100 100 100 100 100 100 100 100 100 100 100 100 97 97 97 100 97 94 94 97 97 74 19 35 45 48 94 94 87 87 84 71 71
71 77 81 87 94 94 97 100 100 97 97 97 100 100 100 94 94 97 97 100 100 100 97 97 97 94 97 97 97 97 71 35 23 23 45 61 84 90 90 90 81 77 68
61 61 61 68 81 81 94 90 94 94 90 94 94 94 87 81 90 94 97 97 97 97 97 97 97 94 77 68 71 71 55 29 16 23 26 74 94 90 87 87 84 87 84
55 55 48 58 71 77 84 84 87 87 87 87 90 87 74 68 68 74 77 84 87 94 87 81 77 61 61 52 48 39 42 19 23 23 32 84 90 87 84 81 81 84 81
48 48 45 52 55 65 68 74 81 84 84 84 84 84 65 65 61 58 61 61 74 68 68 61 58 52 45 39 32 26 23 16 16 16 23 65 81 84 77 81 81 84 84
35 35 39 42 48 55 61 65 71 71 68 71 65 74 65 65 61 55 55 55 61 55 42 42 32 35 32 29 32 26 16 13 13 13 16 55 81 81 81 81 81 81 84
16 19 26 32 32 45 52 58 65 55 55 48 52 52 52 52 39 42 52 52 52 45 39 32 32 23 23 23 23 23 19 10 16 10 16 23 48 68 71 71 81 77 77
16 16 16 16 26 29 32 39 42 45 42 42 39 42 42 39 26 23 35 32 45 35 26 23 16 13 13 13 16 13 19 13 16 10 6 16 23 52 65 71 74 71 65
13 13 16 16 19 23 23 19 23 23 29 35 35 39 42 42 32 23 29 29 23 23 16 13 13 10 10 10 10 10 6 6 6 0 3 6 13 16 42 61 61 61 55
10 13 13 13 13 19 19 13 16 16 16 19 23 26 29 45 45 26 23 13 10 10 10 13 10 6 6 6 3 0 6 6 6 0 3 6 6 10 10 19 35 42 45
6 3 6 10 13 16 16 16 13 19 13 13 19 26 26 35 35 29 13 6 10 6 10 10 6 6 6 3 3 0 0 6 3 6 3 3 3 3 10 10 10 16 42
0 0 0 10 6 10 19 19 16 16 10 19 16 19 26 26 26 19 19 19 6 10 10 10 10 6 3 3 3 3 0 0 0 3 3 3 3 3 3 10 10 6 13
10 3 3 3 3 0 3 13 16 10 6 6 6 16 16 13 19 23 13 13 10 10 10 10 10 10 3 3 3 6 0 0 0 0 0 0 3 3 3 0 3 6 6
6 0 3 3 3 0 0 3 10 10 13 10 10 6 6 13 10 16 10 6 6 3 6 6 10 10 10 3 3 6 3 3 0 0 0 0 0 0 0 0 0 3 3
3 3 3 3 3 3 0 0 10 10 10 3 3 0 0 0 3 6 3 3 3 0 0 0 3 6 6 6 6 3 0 0 0 0 0 0 0 0 0 0 0 0 0
3 0 0 0 3 3 3 3 0 0 0 0 0 0 0 0 0 3 3 0 0 3 3 0 0 0 0 3 6 3 3 0 0 0 0 0 0 0 0 0 0 0 0
0 0 0 3 3 3 3 3 0 0 0 0 0 3 3 0 0 0 0 0 3 0 0 0 0 0 0 0 0 0 3 3 0 0 0 0 0 0 0 0 0 0 0

GEFSSE_con_cape1000_126.txt.gz
Probability
65 81 100 100 100 100 100 100 100 100 100 100 100 100 100 100 100 100 100 100 100 100 100 100 100 100 100 100 100 100 97 97 97 97 100 97 94 94 94 87 90 84 97
68 87 100 100 100 100 100 100 100 100 100 100 100 100 100 100 100 100 100 100 100 100 100 100 100 100 100 100 100 100 97 94 97 97 90 90 94 97 94 81 84 90 97
77 87 94 100 100 100 100 100 100 100 100 100 100 100 100 100 100 100 100 100 100 100 100 100 100 100 100 100 100 100 100 100 97 97 94 71 71 87 87 84 94 97 87
84 87 87 100 100 100 100 100 100 100 100 100 100 100 100 100 100 100 100 100 100 100 100 100 100 100 100 100 100 97 100 100 100 97 61 39 48 84 87 87 94 90 94
84 84 97 100 100 100 100 100 100 100 100 100 100 100 100 100 100 100 100 100 100 100 100 100 100 100 100 100 97 97 97 90 90 84 35 32 68 84 81 84 84 87 90
81 77 97 100 100 100 100 100 100 100 100 100 100 100 100 100 100 100 100 100 100 100 100 100 100 100 97 97 97 94 94 97 90 48 29 39 71 87 77 74 71 84 84
81 84 94 100 100 100 100 100 100 100 100 100 100 100 100 100 100 100 100 100 100 100 100 100 100 100 97 97 97 94 97 97 65 29 39 39 77 90 84 81 74 87 81
81 81 97 100 100 100 100 100 100 100 100 100 100 100 100 100 100 100 100 100 100 100 100 100 100 100 100 100 94 97 100 94 45 26 35 42 87 94 84 90 90 77 68
84 87 84 90 100 100 100 100 100 100 100 100 100 100 100 100 100 100 100 100 100 100 100 100 97 100 94 90 94 97 97 90 74 52 35 58 87 87 84 87 84 77 68
87 90 90 94 97 97 97 100 100 100 100 100 100 100 100 100 100 100 100 100 100 100 100 97 100 94 94 90 90 94 97 90 58 58 55 81 97 90 81 77 84 84 74
81 87 94 94 97 97 90 97 97 97 97 97 97 97 97 100 100 97 97 97 100 97 97 97 100 97 97 87 94 94 87 74 55 61 65 94 97 87 87 84 81 81 77
77 74 77 77 84 87 90 94 94 94 94 94 97 97 97 94 97 90 97 97 97 97 94 94 90 87 71 71 87 90 68 45 35 52 77 90 87 87 90 87 87 87 84
77 74 74 81 84 84 87 90 94 94 90 84 90 94 97 97 97 90 97 97 97 94 97 94 84 68 52 55 61 65 45 23 29 42 61 87 84 74 77 81 84 87 84
71 68 68 71 81 81 84 84 84 87 87 87 87 84 87 90 87 87 94 90 90 94 90 81 74 58 65 55 45 45 29 39 42 48 74 84 71 71 65 77 81 84 84
61 68 65 58 68 71 81 81 81 84 84 84 87 84 84 81 84 77 84 87 84 74 77 77 65 68 58 55 42 39 35 48 35 42 61 81 74 71 68 65 77 84 81
65 61 58 71 71 74 74 71 71 74 81 77 81 81 84 84 84 81 81 84 74 71 68 68 58 74 71 52 52 48 39 35 45 45 52 52 58 55 61 65 65 74 74
55 58 61 58 65 61 58 61 68 68 65 71 77 81 74 74 77 81 74 81 74 74 71 74 68 68 61 55 55 48 48 52 48 61 45 45 45 45 52 58 65 61 65
58 55 48 45 55 58 55 65 61 65 65 65 68 71 71 71 74 74 74 77 74 71 77 77 77 74 71 61 55 48 42 61 55 55 52 45 45 39 45 48 55 61 58
52 58 61 61 55 55 61 55 48 55 58 65 61 65 74 74 74 74 74 77 71 71 71 68 74 81 74 68 45 42 39 48 45 39 48 32 45 42 39 35 48 42 42
52 55 52 55 58 52 55 48 52 55 48 55 58 58 61 65 65 71 74 77 71 71 71 74 74 74 61 58 23 16 23 29 35 32 35 26 32 32 32 19 26 32 39
58 61 58 52 55 55 52 48 39 42 45 35 45 52 52 55 52 55 52 65 68 65 74 68 68 58 55 48 35 26 26 23 26 29 39 32 13 19 19 26 23 26 29
58 61 58 61 52 48 55 55 45 42 45 39 35 42 48 45 45 45 48 52 58 68 61 58 55 42 35 35 26 26 13 10 35 13 29 29 16 16 16 13 13 26 26
42 45 42 42 39 35 42 42 39 39 35 32 29 29 29 32 42 42 48 45 55 48 55 55 52 42 35 32 35 39 23 16 19 26 26 13 16 13 10 6 3 13 16
29 29 32 29 29 32 29 32 26 32 26 23 23 23 19 19 19 29 42 42 52 48 52 55 39 45 42 35 32 42 42 26 23 23 13 13 19 23 13 10 3 10 10
23 19 19 19 23 29 29 35 35 23 23 23 23 16 16 13 13 13 26 35 35 39 39 42 48 39 35 32 26 32 32 35 13 19 13 10 13 16 19 19 6 10 10
19 19 16 16 13 16 19 26 23 26 26 26 26 19 16 13 10 13 10 16 19 26 26 29 29 29 32 32 29 29 26 23 19 16 16 10 16 10 10 10 6 3 6

GEFSSE_con_cape1000_132.txt.gz
Probability
84 97 100 100 100 100 100 100 100 100 100 100 100 100 100 100 100 100 100 100 100 100 100 100 100 100 100 97 94 97 97 97 97 97 100 97 97 94 90 90 100 87 94
87 100 100 100 100 100 100 100 100 100 100 100 100 100 100 100 100 100 100 100 100 100 100 97 97 97 97 94 90 94 90 94 84 94 94 94 90 90 84 94 100 94 100
87 100 100 100 100 100 100 100 100 100 100 100 100 100 100 100 100 100 100 100 100 100 97 100 100 97 97 97 94 90 90 90 87 87 94 77 81 84 81 90 94 90 90
87 94 100 100 100 100 100 100 100 100 100 100 100 100 100 100 100 100 100 100 100 100 97 100 100 100 97 94 94 94 87 84 84 87 97 71 65 77 81 84 90 90 87
84 100 100 100 100 100 100 100 100 100 100 100 100 100 100 100 100 100 100 100 100 100 97 97 100 94 97 97 94 90 87 87 87 94 87 84 84 84 77 77 87 84 87
87 100 100 100 100 100 100 100 100 100 100 100 100 100 100 100 100 100 100 100 100 100 100 97 97 94 94 90 90 87 87 87 87 84 81 77 71 90 84 81 81 77 84
87 94 100 100 100 100 100 97 100 100 100 100 100 100 100 100 100 100 100 100 100 97 94 87 97 97 90 90 84 87 84 87 90 87 65 81 77 90 87 77 81 71 77
87 87 97 100 100 100 100 100 100 100 100 100 100 100 100 100 100 100 100 100 100 100 90 94 100 90 94 94 87 87 94 100 81 68 74 81 90 94 87 77 77 71 74
90 87 90 94 97 100 100 100 100 100 100 97 97 97 97 97 97 97 100 100 100 100 100 100 94 87 94 90 84 90 97 100 87 74 71 74 97 94 87 81 81 68 61
87 84 77 84 87 94 97 97 97 97 97 97 97 97 97 97 97 97 100 97 100 100 97 97 97 97 87 87 87 90 97 100 61 61 65 81 97 94 84 81 81 81 74
84 77 77 68 87 84 87 87 87 87 94 97 97 97 97 97 97 97 94 97 97 97 94 97 100 97 90 97 100 100 97 55 39 65 71 87 90 84 77 81 74 74 77
77 77 74 71 74 77 84 84 84 84 87 90 94 97 97 97 97 97 97 97 97 97 97 97 97 100 90 81 90 94 71 48 29 48 74 97 94 87 81 81 84 84 84
81 87 77 81 77 74 77 84 84 84 84 84 84 90 97 97 97 97 97 97 97 97 97 97 94 77 71 74 94 87 65 48 35 39 71 94 94 87 81 81 81 84 81
81 81 81 74 74 77 77 77 81 68 74 74 81 77 81 87 94 87 97 94 94 97 94 94 84 65 71 71 81 77 65 58 52 65 77 94 90 77 77 77 77 81 87
81 77 77 77 77 74 74 74 68 68 68 65 74 71 71 81 81 84 84 87 90 84 77 74 68 71 74 74 65 65 61 52 58 71 71 90 87 74 71 68 77 84 77
74 74 77 77 77 74 71 68 65 68 65 65 71 68 68 68 68 71 77 87 77 77 68 68 71 74 71 71 74 71 65 55 71 74 58 81 87 81 74 71 65 68 71
74 74 77 77 77 74 74 71 68 65 65 61 58 58 55 52 58 55 71 71 68 68 65 65 71 74 77 71 71 74 68 71 61 68 65 68 61 65 68 71 65 61 65
74 71 71 68 71 74 74 74 71 65 61 65 58 55 48 52 48 55 61 65 68 65 65 61 65 65 61 68 74 74 71 71 71 68 61 58 58 42 55 55 58 61 65
74 74 68 68 68 68 68 71 65 68 68 65 55 48 48 55 52 48 52 58 58 61 68 58 55 55 52 55 61 68 68 71 65 58 48 48 45 42 45 45 48 45 55
74 74 68 68 68 68 68 65 74 68 61 55 55 55 55 55 52 55 55 52 55 52 58 55 58 55 58 58 35 39 52 52 52 48 48 45 39 45 39 29 39 35 45
68 68 65 65 68 71 74 71 68 61 58 55 55 52 52 48 45 48 55 52 48 45 42 45 48 48 55 48 42 39 42 42 39 39 45 32 29 32 29 23 32 26 23
61 61 61 61 61 61 61 68 71 65 65 52 55 52 42 35 45 39 48 48 42 48 48 48 45 39 42 48 42 32 32 39 35 23 35 29 23 16 23 23 16 16 19
58 58 58 58 58 61 58 65 58 61 55 52 48 48 42 42 39 42 39 45 45 45 42 39 39 39 42 42 42 35 26 16 19 29 23 23 26 19 19 19 16 13 13
52 52 52 52 52 55 55 55 55 55 45 45 45 42 39 39 32 35 35 35 39 39 42 39 42 35 35 32 35 32 42 39 26 19 26 23 16 16 16 13 3 6 13
42 45 48 52 52 52 52 52 45 39 42 39 35 32 35 35 26 26 23 32 29 32 35 42 42 32 29 32 32 29 32 39 32 16 3 6 10 13 13 16 16 6 6
35 35 39 35 42 39 35 26 35 39 35 32 39 32 26 29 29 16 16 23 26 32 29 35 42 35 35 39 32 29 26 23 26 16 0 0 6 10 13 13 10 6 3

GEFSSE_con_cape1000_138.txt.gz
Probability
97 100 100 100 100 100 100 97 100 100 100 100 100 100 100 100 100 100 100 100 100 100 100 100 100 100 100 100 100 100 100 100 97 97 97 97 100 100 100 100 90 90 94
97 100 100 100 100 100 100 100 100 100 100 100 100 100 100 100 100 100 100 100 100 100 100 100 100 100 100 100 100 100 100 100 100 100 100 100 100 100 100 100 94 87 97
97 100 100 100 100 100 100 100 100 100 100 100 100 100 100 100 100 100 100 100 100 100 100 100 97 100 100 100 100 100 100 97 97 100 97 81 100 100 100 100 100 97 90
94 100 100 100 100 100 100 100 100 100 100 100 100 100 100 100 100 100 100 100 100 100 100 100 97 100 100 100 100 97 97 97 97 94 61 68 77 100 100 100 100 94 90
97 100 100 100 100 100 100 100 100 100 100 100 100 100 100 100 100 100 100 100 100 100 100 97 94 100 100 100 100 94 94 90 94 87 61 65 71 100 100 100 90 90 94
97 100 100 100 100 100 100 100 100 100 100 100 100 100 100 100 100 100 100 100 100 100 100 97 94 94 94 87 87 87 90 94 84 65 45 55 68 100 100 90 84 94 94
97 97 100 100 100 100 100 100 100 100 100 100 100 100 100 100 100 100 100 100 100 100 100 100 100 94 90 90 84 87 87 94 71 52 39 39 65 100 90 87 87 84 74
94 94 97 100 100 100 100 100 100 100 100 100 100 100 100 100 100 100 100 100 100 100 100 100 100 100 97 97 90 87 97 94 77 58 35 29 71 97 94 90 90 74 71
90 90 90 94 94 94 97 100 100 100 100 97 97 97 97 100 100 100 100 100 100 100 100 100 100 100 97 90 94 90 100 94 42 42 42 26 84 94 87 87 84 81 77
87 84 84 84 84 84 87 90 90 90 90 90 90 90 90 97 97 97 97 100 100 100 100 100 100 100 100 97 100 100 97 84 32 19 19 35 90 94 94 90 87 77 81
68 74 81 81 81 81 81 81 81 81 84 84 84 84 84 84 84 94 94 94 97 97 97 97 97 97 100 94 100 97 84 39 13 13 10 61 94 87 94 90 84 84 81
52 55 65 71 74 77 77 77 77 81 77 81 81 77 77 74 81 81 87 90 90 94 94 97 97 90 87 71 65 81 58 32 10 13 19 84 87 84 84 84 84 84 81
48 52 55 55 61 65 65 71 68 71 65 68 61 68 65 61 55 68 65 74 81 84 77 77 77 68 52 48 26 26 23 29 10 13 19 84 90 87 81 81 81 84 81
48 48 52 61 68 65 65 55 52 52 55 55 45 55 58 55 42 39 32 45 55 48 45 48 45 45 39 26 13 13 16 3 3 13 6 68 77 74 81 81 87 87 87
45 48 42 45 48 48 42 42 42 45 45 29 32 39 45 42 35 29 26 29 35 29 29 35 39 42 26 13 13 13 13 6 10 13 10 58 71 81 81 77 81 81 81
35 35 35 32 35 35 35 35 35 35 29 19 23 26 35 29 32 19 26 26 19 26 26 23 23 23 19 19 6 13 10 10 10 10 6 29 61 68 68 74 68 68 68
35 35 32 35 42 42 42 42 39 32 26 16 19 26 32 23 23 23 19 19 16 13 10 13 16 6 6 6 6 6 6 10 6 6 6 6 23 55 68 65 61 58 65
35 42 35 45 39 39 45 39 35 32 32 26 26 19 19 23 19 23 23 26 23 19 19 3 13 13 6 3 3 3 0 3 3 3 10 6 6 16 39 52 58 55 55
32 32 35 35 39 29 32 29 29 26 23 23 23 23 23 23 23 29 23 26 19 19 10 13 10 6 6 3 0 3 0 3 3 3 3 6 0 3 3 19 42 42 52
35 39 32 32 35 32 29 29 26 19 26 26 19 23 23 26 19 23 19 23 19 13 13 6 0 0 0 0 0 0 0 0 3 3 3 3 0 0 0 6 6 23 29
39 32 39 32 29 26 29 29 23 23 23 19 19 23 19 16 13 16 16 16 13 10 6 6 6 3 3 0 0 0 0 0 0 0 0 0 0 3 0 0 3 3 6
26 23 29 32 26 29 29 19 16 13 16 23 23 19 13 6 6 19 10 13 13 10 6 6 6 10 6 0 0 0 0 0 0 0 0 0 0 0 0 0 0 3 3
23 19 23 26 23 26 26 26 23 19 10 16 16 16 13 10 6 13 10 10 10 6 6 6 6 6 3 0 0 0 0 0 0 0 0 0 0 0 0 0 0 0 3
23 19 19 23 19 19 19 23 19 16 10 10 13 16 10 10 10 6 6 3 3 3 3 6 3 3 3 0 0 0 0 0 0 0 0 0 0 0 0 0 0 0 0
19 19 19 19 16 16 16 16 16 16 13 6 13 10 6 6 6 6 3 0 6 6 6 6 3 3 0 0 0 0 0 0 0 0 0 0 0 0 0 0 0 0 0
23 23 23 16 16 13 19 16 10 13 13 16 13 10 6 6 3 6 6 0 0 0 3 3 3 3 0 0 0 0 0 0 0 0 0 0 0 0 0 0 0 0 0